GFSNGP_700_rhum_078.txt.gz
RH
84 81 79 79 76 81 100 94 99 82 81 74 65 57 60 57 55 50 46 50 58 52 63 65 60 63 67 66 62 61 60 58 54 52 53 46 28 22 26 33 35 34 32 34
83 76 72 78 80 81 81 89 99 99 89 62 62 63 59 63 60 59 51 52 54 62 57 54 60 71 68 66 66 64 63 62 62 57 45 30 32 37 41 42 44 44 45 44
90 78 73 84 45 49 49 52 53 88 38 61 56 57 51 57 57 53 41 48 58 58 57 56 73 77 71 68 67 66 62 58 60 45 36 39 42 40 40 46 42 45 45 47
93 81 95 50 44 47 47 40 46 44 31 33 33 37 50 61 57 55 50 59 60 59 59 62 82 78 70 67 64 63 65 66 57 44 43 42 41 41 50 46 47 47 53 55
95 97 74 46 43 42 45 33 40 40 34 39 38 39 35 43 60 58 60 64 62 61 61 83 83 75 68 65 64 64 67 71 70 55 48 46 44 49 57 55 55 57 57 61
98 96 94 48 65 65 64 49 68 65 57 41 40 42 27 38 49 60 58 66 63 63 65 86 85 77 66 64 63 67 70 75 76 72 54 51 48 59 63 63 61 62 61 57
98 94 76 58 57 57 79 60 72 74 76 66 46 43 42 46 59 58 62 66 63 63 89 92 86 78 66 65 65 66 68 64 68 75 70 54 57 66 68 67 63 61 43 22
99 97 90 61 62 65 62 79 77 84 79 54 50 47 47 55 65 65 65 65 86 94 92 92 86 79 68 68 66 67 62 65 55 60 65 65 72 69 67 64 59 37 19 12
72 73 58 61 67 71 74 68 67 86 82 61 62 59 60 70 72 72 73 87 91 94 98 95 95 80 70 68 68 69 69 65 70 71 75 75 73 70 49 31 23 16 12 11
75 66 63 65 71 72 74 74 82 98 97 100 89 68 65 70 70 80 86 92 91 97 94 100 97 90 74 71 69 69 70 73 76 78 75 74 74 51 25 24 21 17 14 13
70 66 67 71 76 80 79 74 79 76 85 94 92 88 91 94 98 97 94 98 98 97 94 100 99 100 97 76 72 71 70 70 71 72 74 72 46 26 25 25 22 18 16 14
60 56 66 66 74 77 74 80 79 80 83 89 91 88 83 84 84 86 97 97 95 97 98 100 99 97 100 97 78 75 74 75 76 76 64 40 29 25 25 26 24 21 19 18
78 76 77 71 72 73 78 78 85 86 84 84 84 79 82 86 96 100 98 97 97 98 97 98 99 96 98 97 94 84 78 77 74 66 49 34 29 26 25 26 26 25 22 20
83 82 79 74 75 72 78 93 99 96 92 84 81 78 72 73 77 87 96 96 95 99 100 99 98 96 99 95 91 97 93 85 80 80 70 48 34 29 26 26 27 27 26 25
88 80 80 79 80 73 73 74 87 89 81 78 70 64 63 68 71 72 74 73 87 97 100 96 95 97 96 99 95 92 93 99 100 95 83 76 56 37 32 28 27 27 28 27
85 81 78 78 76 78 72 72 76 75 71 67 65 64 63 65 70 70 70 71 72 87 98 92 93 100 97 92 99 100 96 97 94 98 100 98 85 57 40 34 31 29 28 28
85 77 78 80 83 81 76 73 72 72 73 72 71 69 70 70 68 67 69 70 70 73 89 97 100 97 96 95 98 95 100 100 99 100 100 99 100 98 89 58 41 36 33 30
82 85 84 80 83 80 80 80 78 79 79 72 73 73 71 68 72 74 72 73 76 81 83 96 98 97 91 86 89 94 99 98 94 99 100 100 100 98 96 96 95 90 70 47
90 90 86 86 83 79 77 76 90 99 98 99 99 92 77 77 81 82 79 77 76 77 86 86 90 92 94 96 92 98 100 100 99 100 100 98 99 93 97 97 97 97 97 97
78 79 84 86 78 80 92 98 95 99 100 97 96 100 90 93 97 98 98 91 83 76 76 82 88 90 93 98 99 97 91 92 98 96 97 98 98 98 98 97 97 97 97 97
96 96 98 98 94 94 95 96 96 98 99 97 99 100 99 96 93 78 67 91 100 98 96 90 88 92 95 98 98 98 97 98 96 96 98 97 97 97 97 97 97 97 97 97
95 95 96 96 96 96 96 97 98 98 95 91 85 81 80 80 78 81 89 82 54 66 94 97 98 98 99 98 98 98 100 100 99 95 97 98 97 97 97 97 97 97 97 96
96 96 96 96 96 96 96 94 92 92 92 90 87 82 73 40 36 55 63 54 42 22 22 46 75 87 97 97 98 98 98 97 97 97 96 96 96 96 97 97 97 97 96 96
96 96 96 96 96 91 78 68 62 57 49 42 34 23 12 7 6 6 5 5 6 6 4 4 7 23 53 76 92 97 97 97 97 97 97 97 98 97 97 97 97 98 100 100
94 85 68 61 54 47 41 40 30 22 20 17 12 9 8 8 8 6 5 4 4 4 4 3 3 3 3 5 10 17 27 43 54 61 67 70 71 67 60 51 66 81 88 94
71 69 67 53 42 37 27 26 38 26 27 28 28 28 26 22 15 11 8 7 6 5 5 5 5 4 4 4 4 3 3 3 3 3 3 3 3 3 3 3 4 9 15 30
91 84 73 62 50 41 28 29 40 29 23 24 28 30 25 19 17 14 11 10 8 8 7 6 6 6 5 5 5 5 5 5 4 4 4 4 4 3 3 3 3 4 4 5

GFSNGP_700_rhum_081.txt.gz
RH
77 82 84 84 79 80 96 88 97 76 60 48 41 48 55 59 57 60 61 50 48 54 59 56 53 56 63 65 63 62 59 57 61 58 56 52 47 47 44 35 22 27 35 36
96 88 82 87 76 77 77 75 88 83 68 38 50 63 67 61 63 64 63 64 59 54 58 54 62 58 57 64 73 71 68 64 62 64 61 61 54 48 31 27 36 42 45 46
95 90 89 92 68 55 50 48 46 66 32 40 33 41 56 68 62 56 59 66 59 56 55 62 58 56 56 74 77 71 67 64 62 57 57 58 46 37 39 41 40 47 45 47
96 89 95 64 56 51 50 41 47 52 31 34 37 32 40 42 54 58 55 55 64 60 62 61 59 55 70 78 74 70 67 65 64 70 63 54 44 46 45 43 49 48 48 50
96 98 74 53 50 53 51 35 39 37 33 37 37 37 22 28 37 54 56 52 56 65 63 62 60 73 83 80 73 68 68 65 66 69 76 63 50 47 44 48 54 54 56 60
99 96 89 52 64 71 69 48 62 58 66 63 55 37 24 45 33 37 56 55 58 65 64 64 66 79 87 83 72 68 66 66 69 73 76 76 59 54 49 56 62 63 64 66
99 95 80 60 55 54 61 54 69 72 75 74 66 61 49 44 37 35 41 60 61 65 67 64 65 87 88 82 70 67 67 68 70 72 69 79 75 59 57 68 68 68 69 68
100 98 89 65 62 63 55 63 79 73 73 79 54 52 51 43 46 57 62 61 63 69 67 88 93 90 87 82 70 71 71 72 67 73 69 80 82 66 73 74 70 70 57 30
63 59 57 61 61 66 69 74 68 71 94 82 62 63 51 56 61 66 66 67 66 67 89 88 95 95 96 77 72 70 72 75 74 67 68 64 70 77 77 74 72 53 31 16
71 60 64 66 65 68 72 74 77 89 98 97 96 74 69 71 73 73 70 72 73 96 97 93 88 99 99 87 76 73 71 71 74 77 79 82 80 79 75 57 39 23 17 13
78 68 65 67 70 75 77 74 74 77 78 85 95 95 94 92 86 84 82 91 98 96 89 99 91 100 100 100 92 77 74 71 70 72 76 76 77 78 62 30 25 23 19 16
86 81 79 67 73 72 73 73 78 81 83 87 89 93 91 88 89 86 95 97 99 98 98 98 99 96 98 97 96 93 78 75 72 71 72 75 73 57 32 25 25 25 22 19
84 96 88 82 79 73 76 80 86 88 92 90 90 88 80 77 86 93 98 97 89 97 100 99 98 98 98 99 98 98 96 83 79 77 74 66 50 36 30 27 25 25 25 23
95 96 87 84 81 77 74 89 94 98 100 99 92 88 83 77 74 76 84 91 90 92 98 99 99 100 98 98 100 99 95 97 95 89 86 82 67 45 35 30 27 26 26 26
96 91 90 87 79 85 79 74 84 97 99 96 94 88 79 67 66 68 73 73 74 76 90 98 99 100 99 98 97 100 98 93 95 96 98 94 89 85 71 48 34 29 27 27
97 93 95 88 82 85 83 79 76 77 79 80 79 75 70 68 67 66 67 69 70 70 75 86 100 100 99 96 97 100 100 100 100 99 96 92 96 94 97 92 67 42 35 30
96 98 97 94 86 83 83 81 82 81 80 80 79 76 76 74 73 71 71 69 66 68 72 72 85 97 99 99 99 100 100 100 98 100 100 99 94 99 96 94 99 97 89 74
83 94 95 96 95 88 86 83 80 81 80 79 87 85 74 68 60 65 68 72 74 75 77 79 76 88 98 100 100 96 94 95 100 100 99 99 99 100 99 98 97 97 98 97
97 99 98 98 98 96 93 87 85 79 87 99 100 100 100 91 83 80 85 86 84 82 81 83 85 86 94 99 100 97 94 94 95 98 99 99 98 98 98 98 97 97 97 97
92 91 90 93 86 79 77 81 77 92 97 96 97 100 95 91 91 92 88 83 85 91 87 87 84 83 86 90 94 98 99 100 100 97 94 93 97 99 97 97 98 98 97 97
91 95 96 97 97 97 100 96 95 95 95 94 94 95 94 94 96 96 93 90 85 73 68 97 99 92 89 88 89 92 98 98 99 99 99 98 96 93 95 97 97 97 97 97
96 97 99 97 97 97 97 97 96 96 96 95 93 91 89 86 84 79 66 69 67 74 89 72 55 94 98 98 98 98 97 98 97 98 97 97 96 95 95 98 98 98 97 97
96 97 97 96 96 96 96 96 95 94 92 87 82 76 66 51 26 9 7 8 10 19 33 89 63 10 26 70 92 97 97 97 97 97 97 98 99 98 98 97 97 97 97 97
96 96 96 95 86 70 59 52 45 39 29 24 22 19 16 12 9 8 7 6 5 4 4 7 9 4 3 4 11 33 60 74 84 94 97 97 97 97 97 98 98 99 98 98
94 81 66 63 54 40 34 29 24 28 31 25 26 26 27 26 22 17 13 10 8 6 6 5 5 5 4 4 4 3 3 3 4 5 6 8 8 7 10 10 7 8 8 5
90 86 82 66 49 47 41 30 26 36 36 26 24 25 29 30 24 21 18 14 12 10 9 8 7 6 6 6 6 5 5 5 5 4 4 4 4 4 4 3 3 3 3 3
97 96 94 77 57 47 37 29 25 24 29 26 23 27 33 33 26 22 24 24 23 20 17 14 12 11 10 9 8 7 7 6 6 6 6 6 6 5 5 5 4 4 4 4

GFSNGP_700_rhum_084.txt.gz
RH
81 73 71 69 73 96 100 92 89 77 73 72 41 39 42 45 48 48 44 55 52 50 48 54 55 54 51 49 48 47 50 51 49 49 54 52 53 52 49 50 48 47 42 27
97 95 93 96 85 81 87 76 91 92 83 68 48 48 46 52 61 55 56 60 61 55 57 52 58 56 53 57 60 58 54 56 61 58 60 61 58 58 58 58 53 42 28 36
96 94 98 97 74 68 60 58 57 83 41 49 42 41 41 41 59 71 56 63 66 64 64 61 59 61 62 55 52 52 63 67 64 60 60 60 61 58 58 52 41 38 42 45
95 96 88 63 54 52 56 46 53 48 32 33 42 36 32 29 44 60 61 60 59 61 67 66 59 59 57 54 53 65 73 70 68 65 59 59 65 64 53 45 47 48 47 51
94 86 71 56 53 53 51 41 44 38 34 35 34 28 22 28 29 39 54 57 52 62 66 68 68 63 61 59 74 81 79 72 66 63 61 64 68 71 53 51 50 52 54 54
97 85 68 56 51 60 62 56 50 52 55 64 64 47 49 40 33 29 35 56 51 54 62 67 63 65 63 64 74 83 79 69 65 63 67 71 75 79 72 60 55 58 63 64
98 94 85 63 56 54 65 56 57 62 67 73 69 60 53 54 34 31 30 35 56 55 58 64 67 66 65 73 89 85 78 68 64 66 72 77 78 79 86 69 59 67 71 71
99 96 79 58 66 68 63 57 57 64 71 66 66 60 50 52 43 40 39 39 57 62 61 65 69 67 71 83 82 82 73 69 71 74 72 74 74 78 90 72 69 78 77 77
86 79 57 57 61 60 66 70 73 67 82 87 78 60 58 52 48 48 50 50 58 66 65 69 65 79 82 87 93 80 73 71 72 75 75 66 65 75 86 73 80 80 82 68
79 64 60 63 68 66 66 75 72 75 82 92 94 87 64 62 62 65 67 68 69 69 69 68 87 87 84 91 99 87 77 73 72 73 78 79 78 77 82 83 83 81 48 28
88 71 71 71 72 74 74 73 75 73 74 79 86 96 95 88 76 73 72 70 70 73 72 88 96 88 98 99 100 100 90 78 74 72 75 82 86 83 83 81 73 57 34 20
98 94 87 77 77 82 77 76 76 76 81 80 89 97 96 92 91 90 91 95 96 96 94 98 91 98 96 98 97 98 99 89 79 76 75 75 76 78 80 73 38 25 24 22
73 88 87 86 86 84 79 80 82 86 87 86 87 93 96 85 82 96 100 97 96 94 98 100 100 100 99 97 96 97 98 98 95 83 83 82 82 80 70 49 30 26 25 25
73 79 90 97 91 88 83 79 92 94 97 96 97 92 90 92 87 80 77 81 82 87 96 99 99 98 98 98 99 99 100 99 96 98 97 93 90 77 56 40 32 28 26 26
100 98 97 94 92 91 84 80 81 96 100 99 99 98 97 91 81 71 68 70 76 75 73 73 83 98 99 100 100 100 99 100 97 93 94 96 97 97 96 94 79 47 35 30
97 100 96 96 97 90 90 86 86 86 90 96 94 88 82 77 73 70 68 68 69 74 75 73 74 82 86 99 100 100 99 98 99 99 95 95 96 94 96 97 97 97 88 60
86 87 99 97 97 93 94 92 89 90 87 86 84 82 80 78 72 67 63 64 66 68 70 69 71 75 78 87 100 100 99 97 100 100 98 98 98 95 94 95 95 98 98 98
72 98 99 97 96 92 89 95 96 95 91 87 85 78 74 83 80 65 57 58 60 64 74 76 76 79 87 90 97 100 100 99 98 97 98 98 98 98 97 98 98 97 97 97
94 94 93 96 96 96 96 97 97 96 96 94 86 88 99 98 92 83 79 79 78 78 81 84 85 87 87 89 96 98 100 100 100 99 96 96 98 98 98 98 98 98 98 97
97 97 98 97 97 99 98 95 92 83 82 84 95 96 94 96 91 88 89 83 80 76 75 72 77 87 90 93 93 96 100 100 100 100 100 99 98 94 90 91 94 97 98 97
80 83 86 89 94 92 98 99 100 100 98 98 97 97 98 93 87 84 82 80 77 75 76 83 90 69 77 100 100 98 96 97 100 100 100 99 98 99 98 97 98 93 94 97
96 97 96 97 97 96 97 97 97 97 97 96 95 94 93 90 85 77 63 34 10 8 14 38 53 85 82 42 75 96 97 97 98 98 98 98 97 97 98 97 96 98 99 98
97 96 98 97 97 97 97 96 96 95 94 86 74 61 46 34 25 19 15 11 7 6 5 5 6 21 89 95 68 29 56 87 96 97 97 97 97 97 97 98 98 97 97 98
96 96 97 96 82 63 51 45 39 36 38 34 26 23 21 20 19 18 16 13 10 9 7 6 5 5 14 7 4 4 4 6 23 49 65 82 85 95 96 96 96 96 97 97
96 94 84 74 71 54 49 42 32 25 26 32 28 26 27 27 28 28 24 22 18 15 12 10 9 7 7 6 6 6 5 5 4 4 4 4 4 4 4 4 3 3 3 3
95 94 93 93 87 70 60 44 34 25 24 33 29 24 24 27 32 30 22 23 26 26 24 20 17 15 13 11 9 8 7 7 6 6 6 6 6 6 6 5 5 5 5 5
96 96 94 87 89 69 58 46 30 30 36 33 28 26 29 36 37 43 55 59 57 53 51 50 48 46 44 42 39 35 29 23 19 15 12 10 9 8 7 7 6 6 6 6

GFSNGP_700_rhum_087.txt.gz
RH
92 94 85 66 70 92 95 88 90 77 70 65 62 59 59 57 59 49 45 32 33 39 48 46 48 49 48 51 58 62 60 55 47 42 41 41 41 43 44 43 46 45 44 44
94 98 97 87 72 92 92 93 100 94 85 73 57 68 65 68 68 75 51 52 42 46 51 50 49 52 58 58 54 51 49 49 53 53 52 53 54 54 53 55 53 53 52 51
98 92 97 98 74 73 78 84 85 90 70 79 55 58 44 39 39 35 32 52 54 51 59 55 58 60 58 56 53 53 56 54 53 55 62 65 62 62 57 56 56 53 54 48
96 98 92 60 58 55 78 77 74 80 48 34 59 51 46 27 29 29 33 55 59 58 61 65 63 69 65 60 60 56 53 52 61 70 69 66 63 60 61 60 62 54 48 47
93 82 58 61 54 48 52 48 44 40 37 40 45 35 28 29 30 28 34 50 64 60 56 58 65 72 68 61 60 57 57 70 76 76 71 66 64 62 63 64 69 59 49 53
97 95 60 54 52 53 56 54 44 41 46 49 56 56 77 64 55 38 31 39 52 57 54 55 66 71 63 59 59 59 59 61 75 77 70 65 63 65 70 73 74 68 56 55
96 82 72 68 53 53 62 61 59 52 54 63 64 64 57 54 44 48 36 33 32 54 52 62 65 59 60 59 62 60 56 60 78 77 67 67 68 67 69 76 80 77 61 61
98 98 73 67 64 72 74 65 61 58 57 65 68 58 52 51 48 49 44 39 38 58 59 61 64 64 64 66 65 63 73 76 80 73 69 70 71 70 73 74 75 86 71 68
91 81 70 67 69 60 63 69 71 73 84 92 87 83 59 54 51 48 46 48 45 48 62 64 66 67 68 69 71 81 86 87 77 72 70 69 74 73 67 66 88 86 74 82
94 71 74 68 67 69 71 70 74 76 80 81 83 90 83 67 68 68 68 65 58 55 67 68 68 69 70 77 88 88 94 92 78 74 71 70 75 79 78 71 83 78 84 87
87 82 79 72 77 76 76 73 77 79 79 78 80 84 93 93 79 78 76 75 74 74 72 71 71 72 76 91 95 93 95 96 94 79 74 72 74 82 84 81 82 84 84 74
80 96 94 91 81 77 80 78 78 77 77 80 84 90 93 92 89 90 90 92 88 81 77 82 80 77 81 98 98 99 99 98 97 96 80 75 75 76 78 79 79 78 73 57
77 95 89 86 88 79 81 82 83 83 81 86 90 92 96 94 85 80 88 96 97 97 94 98 98 99 98 98 98 99 98 96 98 97 98 86 78 78 80 82 82 63 35 25
52 50 74 94 88 86 87 84 80 85 92 95 96 96 97 93 91 88 83 75 76 83 87 86 88 94 98 98 100 99 98 99 99 99 97 96 98 94 86 80 68 53 35 28
85 87 71 84 94 92 90 84 82 87 94 95 93 92 95 95 94 90 77 71 66 65 67 73 76 80 78 81 95 100 100 99 99 100 100 96 92 95 97 97 97 94 70 46
79 91 98 84 98 98 94 88 88 88 86 96 100 96 96 94 84 78 74 70 68 66 62 59 62 66 68 68 71 80 98 100 100 98 99 100 99 93 93 92 92 97 97 97
82 94 99 98 98 99 95 88 89 90 89 88 88 86 85 85 82 77 74 70 65 61 58 60 63 65 68 69 71 80 90 98 100 100 99 99 98 99 99 98 97 94 96 99
86 89 96 96 99 98 93 91 92 91 91 92 91 88 88 86 80 79 84 73 65 64 65 63 65 75 78 81 79 82 86 96 100 100 100 99 99 97 98 99 99 98 98 98
71 83 94 97 98 98 97 96 95 96 97 96 93 90 89 88 88 95 87 86 88 82 78 76 77 80 84 88 92 90 94 100 100 100 100 100 98 98 94 97 99 98 98 97
85 95 97 97 97 97 97 97 99 100 95 90 83 78 85 97 94 92 91 90 86 82 79 78 78 80 80 77 74 82 100 100 100 100 100 100 100 100 98 97 98 99 96 95
98 96 96 89 93 96 99 98 100 99 96 94 97 97 97 98 91 85 83 81 79 74 55 19 16 31 57 73 86 68 91 100 99 100 100 100 100 99 99 98 100 100 100 100
94 93 98 98 98 97 97 96 96 96 96 96 96 96 94 91 85 76 62 47 33 20 12 8 6 5 6 18 58 87 72 73 94 97 97 97 97 97 97 97 97 98 98 97
96 97 97 96 97 99 98 97 97 96 95 94 84 65 46 32 25 21 19 17 14 11 9 8 7 6 4 5 43 59 37 29 38 71 90 95 96 97 97 96 97 97 97 97
96 96 96 96 95 82 60 48 40 34 30 26 28 32 27 24 25 26 27 26 25 23 19 15 13 10 8 7 6 6 5 6 5 4 4 8 25 49 88 86 79 79 65 92
96 95 95 94 87 67 54 51 45 37 28 24 30 30 26 25 25 27 30 27 21 21 23 23 22 19 16 14 12 10 9 8 7 7 6 6 6 6 5 5 5 4 4 4
96 97 97 96 95 87 83 66 54 40 30 29 27 29 27 24 24 29 34 37 48 55 58 56 54 52 50 48 47 44 42 39 34 28 22 16 12 10 8 7 7 7 7 6
96 96 96 96 95 94 70 65 52 57 55 44 46 48 45 43 45 44 48 60 67 67 61 56 55 55 54 52 51 50 48 45 41 37 36 37 38 38 36 32 28 23 20 17

GFSNGP_700_rhum_090.txt.gz
RH
86 72 89 88 97 86 92 92 90 77 70 53 48 46 52 63 62 63 62 54 42 39 33 31 43 40 41 41 45 46 55 66 73 76 68 61 55 46 42 42 40 37 38 41
87 92 87 96 89 94 79 81 84 76 67 58 55 53 57 56 64 63 69 66 52 44 37 34 40 44 44 51 53 58 64 67 68 63 51 48 51 50 50 51 53 51 49 50
97 93 99 97 76 73 73 77 82 86 48 51 57 62 64 66 70 47 43 44 41 37 33 49 50 52 50 53 56 58 57 54 53 55 55 51 48 49 56 60 58 56 53 53
97 96 97 61 59 52 67 59 63 76 76 59 72 67 70 44 40 36 30 30 28 26 42 57 59 56 56 57 57 55 53 56 57 53 50 50 62 67 65 62 60 58 56 57
98 96 76 62 58 56 60 56 62 68 54 55 71 71 37 38 34 31 27 24 25 30 54 58 63 64 61 62 63 60 57 58 55 52 54 65 71 68 64 61 61 60 60 63
100 93 88 60 55 56 58 52 52 55 62 61 54 55 74 65 58 52 48 41 32 29 49 61 60 60 64 72 73 64 62 61 58 54 51 57 69 69 62 59 60 63 67 72
99 95 78 69 64 54 56 71 69 59 56 59 63 65 61 56 50 45 44 50 37 32 47 61 56 56 63 74 75 68 66 65 61 60 58 62 74 68 64 64 66 68 74 76
99 95 89 69 68 68 80 79 70 64 61 58 58 67 63 56 50 48 48 52 44 40 46 59 59 66 78 78 70 67 68 66 67 69 75 80 74 69 69 73 74 69 74 76
95 92 90 76 75 65 72 71 74 74 77 88 88 87 91 67 57 57 54 48 48 45 50 62 69 79 77 69 69 71 71 74 86 87 86 76 71 68 69 74 73 68 70 92
91 90 94 90 81 72 66 71 72 77 79 79 78 81 86 92 73 72 71 68 59 53 50 61 71 80 75 73 73 75 82 91 91 92 93 80 74 70 69 76 78 71 82 90
69 77 84 91 93 77 73 74 73 76 79 81 79 79 88 100 99 87 81 78 76 72 68 68 74 77 78 77 77 83 91 97 94 95 97 97 83 74 70 74 82 83 81 83
83 91 91 100 95 84 76 72 74 77 77 79 82 89 99 100 97 92 91 98 95 86 82 82 81 80 80 81 81 83 85 98 96 94 95 94 92 83 74 73 77 80 83 87
73 72 82 90 98 89 87 87 82 82 83 87 90 96 96 98 98 86 82 82 95 97 98 94 98 98 99 99 98 95 96 95 97 100 96 94 94 96 96 81 79 81 78 72
97 88 69 74 95 99 90 88 86 83 83 96 98 98 98 98 97 95 95 91 81 72 71 77 79 81 78 90 96 96 98 98 99 99 100 100 99 93 93 100 97 93 88 70
93 88 66 54 76 96 98 91 91 84 88 93 98 99 98 94 95 94 90 81 74 70 68 67 68 71 76 74 73 73 77 97 100 100 99 98 100 99 95 92 96 100 98 96
68 64 75 77 70 87 97 98 92 85 86 88 97 100 100 98 96 88 82 78 74 69 67 64 63 63 64 68 75 75 74 81 91 98 100 100 99 97 99 99 97 96 95 99
51 78 78 97 85 90 98 99 92 89 87 90 92 92 90 87 87 87 84 79 67 61 58 56 53 52 56 62 69 73 77 82 97 100 100 100 100 100 97 98 97 97 98 98
84 92 94 97 95 93 98 96 94 92 92 91 91 90 90 89 89 86 85 82 69 72 72 71 70 68 66 68 74 79 82 88 96 98 100 100 100 99 99 98 99 98 97 98
54 73 91 85 95 97 97 98 99 97 96 96 98 98 95 91 88 80 78 81 83 85 82 77 74 72 72 72 73 75 77 82 94 100 100 100 100 99 98 98 98 98 97 97
69 69 79 92 96 99 99 98 97 98 98 98 98 98 90 80 81 86 90 89 84 80 77 74 69 43 22 25 39 56 71 77 74 86 100 99 97 97 99 100 98 98 99 98
78 86 83 94 96 96 96 96 97 95 95 94 91 94 97 96 96 92 87 87 80 67 51 35 22 14 8 6 6 8 20 66 68 71 90 98 98 97 97 98 97 97 98 98
90 91 86 91 96 96 97 98 97 97 97 96 97 97 96 96 89 75 53 36 26 21 18 15 12 8 7 7 5 4 12 51 73 68 67 71 88 96 97 97 97 96 97 97
83 89 92 96 98 98 97 96 97 97 97 96 92 89 78 48 30 25 23 24 24 24 23 22 19 16 13 11 9 7 7 16 12 8 6 8 14 26 50 82 94 95 97 97
86 86 92 96 96 94 89 66 50 42 35 30 27 27 28 28 25 25 26 27 28 25 20 20 20 22 22 21 20 17 14 12 10 9 8 7 6 6 6 6 6 8 18 28
92 93 92 94 95 95 93 78 61 53 43 32 27 27 32 29 25 24 24 28 31 35 45 53 57 58 57 55 53 51 49 48 47 46 44 41 37 29 20 13 9 8 7 7
98 97 96 94 94 94 97 93 72 56 52 48 36 40 41 35 29 28 32 38 41 53 64 67 64 59 57 57 56 56 54 52 51 49 48 46 43 38 33 33 35 36 34 30
84 89 93 96 95 93 94 95 94 78 54 58 64 65 64 58 55 56 60 63 68 73 72 60 57 60 62 61 57 53 50 47 45 44 44 43 42 41 36 28 20 15 14 15

GFSNGP_700_rhum_093.txt.gz
RH
95 97 93 97 92 97 98 92 86 73 64 52 50 53 60 64 60 62 64 61 51 43 43 44 39 33 40 37 43 48 55 72 65 58 69 76 74 74 73 68 57 46 42 41
92 69 91 100 83 95 95 90 90 79 71 60 51 49 51 50 64 68 67 63 63 53 43 43 43 37 34 40 40 42 47 52 58 73 80 80 77 65 54 52 51 47 44 49
89 78 97 99 79 73 74 74 74 86 48 53 66 54 57 57 65 60 52 55 57 54 46 45 40 35 41 46 44 46 54 60 67 72 65 57 58 59 56 52 53 58 61 59
78 99 96 68 60 59 63 64 71 71 60 56 57 63 67 71 60 55 52 39 38 37 34 34 29 28 53 54 51 50 54 56 58 58 61 58 54 53 62 67 70 68 63 62
85 97 89 68 65 60 57 53 73 75 68 60 72 80 70 57 55 46 36 32 29 29 28 27 27 52 60 61 61 62 63 63 62 63 59 57 60 61 64 68 69 67 62 60
96 94 85 66 53 62 60 57 57 49 50 58 61 61 50 52 49 54 48 45 38 36 28 27 31 61 60 67 70 71 73 70 67 64 62 61 60 58 54 56 71 66 63 62
99 97 68 67 73 64 56 72 76 67 68 70 71 68 61 61 55 46 40 40 39 42 37 32 42 61 62 68 74 80 83 74 70 67 66 64 64 65 67 75 70 66 68 71
95 94 92 81 79 73 79 81 78 70 66 64 61 62 64 61 56 51 45 43 44 46 45 39 52 64 62 65 74 84 84 74 70 70 73 78 83 85 80 73 69 66 70 74
98 96 95 96 94 95 91 87 78 67 74 91 98 94 85 92 72 62 58 51 47 51 48 45 51 64 68 75 87 86 76 72 74 77 83 86 86 91 80 74 71 70 76 78
64 86 92 96 98 95 89 75 72 73 77 83 80 77 78 88 92 77 75 73 66 57 55 56 61 72 86 91 84 75 75 75 75 80 85 93 93 95 90 78 71 69 78 80
65 57 59 76 93 98 86 75 72 74 75 78 82 82 83 88 98 97 90 83 80 76 70 67 73 85 97 92 84 80 78 77 81 86 88 99 94 92 91 89 76 71 78 84
71 71 66 61 91 99 96 84 77 76 83 82 80 84 90 99 96 94 92 98 99 92 86 86 84 85 86 86 84 83 82 82 89 92 98 100 93 93 91 96 90 78 78 80
91 93 93 78 75 96 100 96 89 95 96 89 90 89 90 93 95 98 95 93 88 83 81 99 100 98 86 86 87 90 97 98 98 94 99 100 100 95 96 89 96 100 87 83
100 97 91 91 84 74 95 97 96 94 92 85 91 90 95 94 96 98 99 98 95 88 79 74 75 77 77 78 77 88 93 97 99 98 99 100 100 100 100 99 91 99 100 98
63 71 88 89 78 65 88 98 97 94 93 89 89 85 96 97 87 92 93 91 81 77 75 73 71 69 67 68 74 80 80 79 80 90 100 100 100 98 100 97 99 98 96 97
40 54 73 76 66 60 66 96 97 97 92 89 93 100 100 100 98 99 92 86 83 77 71 65 63 61 62 62 63 66 69 70 72 76 85 98 100 99 100 98 98 98 99 99
70 78 78 90 98 91 87 92 98 98 96 96 96 97 100 100 96 93 91 89 86 82 77 71 66 62 59 57 59 63 71 77 78 82 92 100 100 100 100 100 100 95 98 98
77 86 93 97 100 82 85 88 100 99 97 96 97 97 98 97 97 94 94 89 83 78 78 81 78 76 74 74 74 75 80 86 90 97 100 100 100 100 100 100 100 99 99 98
66 67 84 89 86 86 87 93 97 98 98 98 98 97 97 97 98 97 94 86 82 88 90 86 80 74 68 58 51 55 63 68 70 72 73 76 87 98 99 98 94 93 96 95
83 63 69 79 83 82 82 89 96 96 97 97 97 97 97 97 95 89 92 96 95 90 86 80 70 56 38 22 12 8 7 13 20 41 68 63 74 89 97 98 98 98 96 98
79 82 79 84 91 92 91 94 96 96 96 96 96 93 91 93 96 97 97 96 94 81 51 32 21 16 13 10 8 7 5 4 6 32 61 74 64 66 84 94 94 94 96 96
75 85 93 90 93 96 95 92 93 92 93 93 92 95 97 97 96 95 87 56 27 22 22 22 21 19 16 14 11 10 9 6 8 40 26 17 10 9 13 24 52 82 92 95
77 83 84 90 95 98 98 98 96 94 93 91 90 88 84 76 52 31 26 26 26 27 26 22 20 20 21 22 23 23 22 20 17 16 16 15 12 11 8 7 6 6 6 12
79 88 89 92 98 97 96 96 84 55 44 38 32 28 27 28 28 27 26 26 27 29 30 34 46 55 58 59 58 56 54 53 52 50 49 49 47 46 45 43 40 36 26 15
92 94 96 97 96 96 96 96 95 79 64 52 37 33 32 33 32 28 25 25 28 33 39 52 63 66 65 60 58 57 57 56 54 53 50 48 47 46 44 44 42 39 34 31
88 96 98 99 99 98 96 96 96 97 88 64 61 65 62 57 56 54 52 53 52 55 62 68 71 65 58 59 60 58 52 44 36 29 27 27 28 30 31 34 35 36 36 35
73 70 70 79 89 92 96 96 95 95 94 96 91 76 73 75 81 85 82 76 70 65 74 78 66 56 61 61 52 29 9 5 7 9 9 9 9 10 11 12 13 15 16 17

GFSNGP_700_rhum_096.txt.gz
RH
68 80 97 95 98 95 98 95 86 73 70 49 54 54 52 53 55 58 56 50 45 42 43 44 40 38 38 34 38 34 38 48 57 62 88 95 91 67 66 75 84 82 76 65
50 55 84 79 73 96 98 98 96 85 70 66 69 68 62 60 62 71 74 72 68 59 47 44 41 44 44 41 36 38 38 48 51 52 71 78 70 79 84 83 79 62 57 53
66 70 98 100 86 71 71 78 75 87 61 75 81 85 77 67 67 64 62 64 60 55 45 43 39 40 43 40 39 37 42 43 48 57 67 74 77 78 70 62 62 57 52 55
62 98 97 85 75 65 69 67 76 77 69 70 63 63 68 66 60 56 65 68 60 50 40 35 36 39 41 35 34 40 47 51 60 69 73 67 62 65 64 60 61 62 64 65
84 95 86 70 71 68 67 64 58 66 64 67 70 76 81 78 65 63 58 48 38 32 28 26 27 30 34 36 56 58 56 61 67 65 62 66 66 62 63 61 54 50 47 55
99 98 85 78 66 67 64 64 65 59 49 66 76 80 62 65 55 48 45 39 35 32 31 29 29 27 32 56 70 70 68 68 69 66 65 65 64 64 61 57 55 51 48 57
76 94 75 79 78 66 69 85 88 73 61 60 63 66 64 67 64 62 56 47 38 34 34 40 43 32 37 66 70 75 83 82 77 74 72 70 69 67 64 64 66 72 76 70
94 94 88 82 81 77 85 99 88 77 70 66 63 61 58 54 52 51 46 41 37 36 39 42 48 42 57 67 70 77 83 86 89 85 79 72 70 69 75 79 82 77 72 67
97 89 90 90 90 90 91 90 96 82 74 76 72 76 82 77 75 79 63 54 47 43 45 53 52 46 70 70 70 69 78 89 95 92 77 75 74 79 88 89 89 82 73 69
73 65 68 79 94 97 96 100 90 80 72 80 86 77 74 70 76 92 78 72 65 56 51 52 55 58 70 70 81 89 94 97 84 77 78 79 83 90 88 92 92 90 82 71
64 64 62 66 63 73 92 97 90 80 77 76 80 84 82 80 91 93 94 85 79 76 68 62 64 68 79 93 100 99 90 81 80 81 85 90 90 85 84 94 92 92 92 78
78 82 82 82 90 98 100 98 96 82 81 85 86 88 96 94 95 93 84 94 98 95 90 85 82 83 90 100 99 96 90 87 89 90 94 98 92 91 98 98 96 90 91 90
89 97 91 86 95 94 78 85 98 98 88 83 93 93 95 97 95 92 91 88 89 86 82 92 100 100 98 92 92 90 87 85 85 88 98 98 100 99 100 99 97 95 88 99
96 89 80 93 98 93 82 68 95 97 95 95 87 92 95 97 96 97 98 95 93 89 85 79 75 74 76 81 84 85 88 98 98 97 98 99 98 97 98 98 99 100 98 94
60 44 42 73 86 88 80 64 82 99 96 90 93 96 96 97 98 93 87 88 89 81 77 75 72 71 69 67 65 66 73 76 74 76 81 86 99 100 99 98 100 95 100 100
66 58 54 66 69 82 74 67 93 98 95 93 96 97 96 98 100 98 95 94 86 83 81 76 73 69 66 62 60 60 63 65 66 69 72 76 82 96 98 100 99 92 96 99
63 82 66 70 85 70 60 65 90 97 98 99 97 96 97 98 99 100 92 88 87 86 84 78 73 71 70 70 67 63 61 63 67 71 75 79 83 86 100 100 100 100 100 100
76 73 89 96 99 91 84 87 89 97 99 97 96 94 97 97 94 94 93 93 93 91 87 78 77 82 79 75 73 72 73 76 78 82 87 94 97 100 100 100 100 100 100 100
74 71 66 88 88 91 93 92 93 93 94 98 97 98 99 99 97 97 96 95 93 87 87 92 92 86 79 74 69 47 28 36 50 59 64 67 70 72 70 75 87 97 99 97
67 76 60 67 83 88 92 95 99 100 98 94 95 100 97 97 97 98 95 91 92 96 97 92 90 83 50 31 22 16 11 8 6 8 13 14 40 51 66 72 79 91 94 95
61 69 79 73 69 87 94 98 100 100 99 98 97 98 97 96 94 91 96 99 98 96 94 65 37 24 20 17 14 10 9 8 6 6 7 45 47 26 24 18 20 26 42 68
51 69 74 82 90 93 97 97 96 97 96 96 97 97 96 97 98 99 98 95 90 62 28 24 25 23 21 19 17 16 14 13 12 10 9 10 10 11 12 12 10 8 7 6
58 72 82 84 87 92 95 95 95 96 96 94 94 93 93 93 94 86 58 34 27 27 28 27 24 26 35 46 53 56 57 56 54 53 52 51 51 50 49 48 48 46 45 42
75 87 90 89 89 91 96 95 95 95 95 88 60 43 38 35 35 33 29 27 26 27 30 31 39 51 60 64 64 62 58 56 56 55 54 52 49 47 44 42 41 40 40 40
76 87 93 93 94 98 96 96 96 95 96 95 93 76 54 46 42 40 35 28 27 31 37 42 55 64 67 66 61 60 60 59 52 43 31 22 17 15 14 12 12 12 13 15
63 72 74 83 92 95 96 96 96 96 96 96 96 89 79 81 75 68 64 62 61 62 66 69 70 73 72 60 60 62 57 38 12 5 5 6 5 5 5 6 9 11 12 13
64 71 76 75 71 68 70 77 86 94 95 96 96 94 94 95 95 95 95 95 96 95 90 78 78 81 66 56 63 62 37 9 4 4 4 4 5 8 10 13 16 18 18 17

GFSNGP_700_rhum_099.txt.gz
RH
73 72 74 68 88 98 98 97 90 74 72 62 53 52 52 55 50 51 51 50 50 48 47 44 42 40 40 38 38 41 40 39 47 70 82 84 96 81 74 96 78 79 85 80
63 52 51 62 75 80 96 98 98 97 80 70 67 61 57 62 69 67 66 63 58 53 50 49 48 45 42 42 42 41 37 39 40 42 50 63 62 78 98 78 78 79 73 75
86 93 78 84 70 73 71 84 88 97 74 81 89 74 66 69 72 74 71 67 59 54 54 49 48 46 39 37 40 41 39 36 37 40 46 54 64 84 78 82 77 68 61 61
70 93 88 87 93 82 78 79 79 74 70 76 77 89 88 87 89 84 78 71 64 55 51 45 46 41 37 38 42 42 39 38 36 42 46 51 59 72 81 72 62 61 56 57
94 100 78 77 74 78 86 94 88 76 62 72 86 95 79 85 92 78 69 69 61 53 47 43 40 34 30 31 34 39 36 41 52 55 58 66 72 71 64 65 60 58 58 54
97 100 95 83 82 74 74 94 92 77 66 63 78 85 77 75 69 64 60 53 45 41 35 30 32 29 28 28 32 33 47 65 72 73 72 67 66 68 67 67 66 64 61 58
87 95 58 73 78 78 78 78 94 80 80 79 74 71 64 60 62 61 56 53 47 41 38 35 34 39 39 40 37 57 73 77 80 77 72 72 73 72 72 70 66 64 64 66
95 98 81 72 77 86 79 97 98 91 86 80 79 73 66 63 61 58 54 50 46 41 37 34 35 38 48 48 63 81 80 81 82 80 78 79 79 76 73 71 73 80 79 79
92 82 82 78 83 84 88 91 91 84 89 78 81 91 96 93 79 74 79 70 58 50 46 42 43 50 54 57 82 76 75 80 85 90 90 93 91 82 74 74 75 80 87 86
69 57 58 59 54 60 68 88 97 88 87 83 82 83 81 80 82 84 84 80 68 64 60 50 49 58 56 61 77 73 75 76 85 98 100 98 89 82 83 81 78 76 85 89
57 60 64 65 69 68 63 63 80 97 89 84 81 81 81 86 91 99 88 85 83 74 73 66 64 67 68 75 76 78 91 94 96 100 98 91 87 92 89 80 73 77 87 89
63 68 76 81 89 95 91 82 82 69 96 86 83 83 82 87 95 97 93 86 92 92 87 80 77 77 80 91 100 99 99 100 97 91 89 90 90 92 97 97 96 85 91 92
68 74 75 72 79 85 95 91 84 75 82 94 89 88 83 92 94 97 96 90 85 82 79 80 90 99 91 92 99 100 97 96 96 92 88 84 85 82 98 98 100 99 100 97
69 68 59 43 48 61 66 83 80 77 80 98 94 87 85 88 94 94 95 95 95 91 88 85 81 77 76 75 79 88 88 87 84 85 90 92 97 99 100 100 100 100 99 97
73 63 62 49 62 71 80 92 83 72 87 99 100 91 81 91 96 98 98 97 94 89 85 80 77 75 73 70 68 66 66 68 69 70 73 77 82 86 95 99 100 100 100 100
67 62 65 48 57 64 88 77 64 62 90 100 91 86 94 90 86 100 100 99 96 91 85 83 80 76 72 70 65 63 61 62 66 68 70 73 78 80 82 100 100 100 100 100
61 67 71 68 64 65 69 70 69 91 96 98 96 90 92 96 95 95 94 95 95 89 86 86 85 80 72 68 68 68 67 64 61 65 68 71 78 81 85 98 94 100 100 100
59 72 66 79 84 68 75 89 95 93 94 96 97 98 97 98 99 97 98 96 96 95 93 91 86 79 74 77 78 76 72 69 69 73 77 79 82 89 96 99 100 100 99 97
53 63 72 60 80 81 77 74 76 83 86 94 94 96 98 97 97 100 98 97 98 97 95 90 88 92 91 85 78 71 65 52 24 20 33 51 63 68 68 66 66 63 59 73
44 54 64 66 55 75 79 79 84 93 100 100 100 98 93 94 97 97 97 97 96 96 95 97 97 95 93 85 65 41 21 15 12 9 7 6 10 16 18 47 64 59 48 53
52 45 51 64 74 66 69 82 89 91 94 98 100 98 98 97 98 97 97 96 96 98 99 98 94 71 40 26 22 21 18 14 11 9 8 6 7 27 51 23 10 8 7 6
46 50 49 60 70 76 85 90 91 93 94 94 96 96 96 96 97 98 97 97 96 95 93 69 32 26 24 22 20 19 20 23 25 26 26 25 24 25 31 38 43 45 45 46
45 47 52 67 79 83 85 88 93 98 98 95 94 95 93 89 92 93 92 88 79 52 33 28 28 25 25 37 49 57 61 61 59 58 56 55 55 54 53 51 49 47 44 42
47 57 64 78 89 89 88 88 90 92 94 96 94 95 93 60 43 43 39 33 29 28 27 29 30 33 45 58 65 66 65 60 59 58 58 55 49 41 34 26 19 12 9 7
50 52 61 70 79 88 89 90 94 96 97 97 97 97 95 94 71 59 52 45 34 28 28 32 36 45 60 67 72 69 61 61 60 54 34 11 5 6 5 4 4 5 7 10
54 58 60 64 67 72 74 80 86 93 94 96 96 96 96 96 95 93 83 70 65 60 59 59 65 76 93 93 82 60 60 62 57 25 6 4 4 4 4 6 7 10 13 16
60 65 66 67 71 78 78 76 74 72 72 73 82 94 96 96 96 96 96 95 95 96 96 96 96 93 89 89 76 57 60 65 46 10 4 4 4 5 7 8 11 15 19 21

GFSNGP_700_rhum_102.txt.gz
RH
57 57 75 73 62 56 85 100 96 83 78 69 53 55 53 52 52 51 50 50 50 49 46 46 46 45 43 43 42 41 41 40 41 44 55 69 86 89 89 93 84 84 78 71
64 66 69 68 51 46 65 91 87 100 86 77 64 59 60 59 64 63 63 64 63 61 57 51 48 47 45 44 42 39 39 39 41 40 40 50 67 82 81 86 85 71 83 65
88 98 96 86 88 83 73 77 98 100 90 95 90 75 71 68 66 70 64 60 65 65 59 54 52 49 47 44 43 40 37 38 38 36 40 41 43 56 65 65 66 73 64 72
86 86 88 95 88 92 93 96 100 97 97 95 88 87 76 71 78 73 72 74 71 67 65 58 53 50 46 44 43 37 34 32 38 38 38 39 44 52 60 60 64 66 72 65
100 100 78 84 86 78 96 100 99 91 80 64 63 82 90 96 90 87 84 77 74 67 63 61 60 50 46 47 44 38 35 37 40 42 41 44 50 53 59 67 76 73 60 58
90 100 95 91 96 83 87 100 98 92 78 60 84 90 93 95 90 86 76 68 63 59 56 52 48 42 38 35 32 27 28 33 38 38 47 58 60 64 76 82 68 62 61 61
75 83 46 68 83 87 94 83 98 94 84 82 89 97 96 92 92 88 67 60 55 52 49 43 38 34 34 35 33 36 37 37 40 54 67 71 74 79 74 69 67 67 66 66
100 97 76 63 76 87 93 91 91 98 96 92 94 91 94 86 81 76 70 63 54 49 45 39 35 33 33 35 43 54 49 42 58 76 81 83 79 71 72 73 73 71 69 68
72 70 64 52 54 56 58 74 91 97 97 98 92 92 90 94 91 82 74 70 73 64 56 47 41 37 38 44 53 54 51 65 80 86 88 86 80 79 82 82 82 77 77 72
62 53 55 59 60 59 59 62 62 69 92 97 97 89 91 85 88 87 80 82 90 76 72 65 53 47 51 63 64 62 74 78 82 87 92 94 93 90 92 95 87 87 79 76
48 54 59 65 74 80 84 82 74 69 64 85 97 91 87 86 86 88 95 89 88 95 86 76 64 59 65 71 74 89 88 82 78 82 92 100 100 99 99 94 89 84 80 80
50 54 63 74 83 86 75 92 98 84 78 68 97 94 86 85 84 86 97 93 99 100 99 90 84 81 82 84 87 89 98 100 100 98 91 96 100 97 94 92 90 86 90 96
49 49 58 62 57 44 45 50 59 83 81 73 82 96 89 87 92 93 98 96 93 94 94 88 82 100 100 100 100 99 99 99 99 99 98 96 97 94 92 93 92 95 99 100
39 42 57 62 48 56 64 61 73 77 85 72 80 100 89 91 94 100 95 97 97 98 98 94 88 87 87 91 90 91 98 99 98 98 99 100 100 100 97 97 100 100 100 100
37 44 59 62 44 56 64 70 79 76 76 72 94 98 94 100 100 98 96 97 98 96 96 96 94 86 80 78 78 75 74 74 77 80 80 85 89 93 90 99 100 100 100 100
39 44 56 60 48 55 60 65 55 60 65 74 95 100 100 100 100 97 99 91 94 95 96 92 89 87 84 81 76 71 69 67 65 66 70 71 74 76 85 94 97 100 100 100
35 42 54 56 65 59 57 66 65 59 77 75 76 88 98 92 99 98 98 94 93 93 91 90 90 88 86 82 76 70 70 71 70 69 69 71 75 78 82 93 99 100 100 100
35 38 46 57 63 71 59 67 75 73 73 78 78 79 81 86 96 96 99 98 95 99 94 92 90 88 85 80 78 79 81 79 74 68 64 70 79 83 88 95 100 100 98 96
36 37 42 55 54 63 69 65 73 72 71 69 77 86 95 94 93 95 96 95 97 99 99 97 94 90 87 89 90 84 75 58 50 44 30 17 18 38 54 66 69 63 50 59
31 37 39 44 57 63 57 68 73 71 70 76 87 83 87 91 92 96 95 93 95 96 97 97 94 91 92 94 92 80 65 47 35 27 17 11 8 7 6 13 14 42 58 43
27 32 40 44 46 57 71 76 72 76 85 92 95 93 89 87 89 93 93 95 94 96 96 96 96 96 91 71 40 26 22 20 18 15 13 11 9 8 8 19 44 27 10 12
27 32 37 41 44 56 69 76 79 84 88 91 92 94 96 96 96 96 96 96 97 97 96 96 93 73 38 26 23 20 20 26 33 40 44 43 43 44 44 44 49 51 52 52
32 35 40 45 51 59 67 76 80 82 83 84 86 87 90 95 97 95 94 95 95 96 95 82 51 31 27 24 30 47 58 62 64 63 61 59 58 57 56 55 52 47 41 32
38 40 42 45 50 55 70 82 88 90 92 93 89 89 94 97 97 96 95 83 45 33 29 28 29 30 30 37 53 64 68 68 63 62 62 61 57 44 26 14 9 6 5 5
36 38 45 47 47 50 58 67 79 91 94 97 98 97 96 98 100 98 96 94 69 52 37 28 28 32 35 45 59 67 76 88 92 90 67 53 20 5 5 5 5 5 7 8
35 38 44 48 50 54 60 68 74 76 74 73 73 75 81 91 96 98 98 96 96 95 90 70 57 49 47 57 83 96 94 90 66 66 65 37 7 4 4 4 6 7 8 10
47 48 50 54 60 67 74 76 80 81 81 81 83 87 86 91 96 96 97 100 98 96 96 96 96 96 96 96 96 95 94 84 63 67 66 23 5 5 5 7 7 7 9 14

GFSNGP_700_rhum_105.txt.gz
RH
72 70 61 57 47 57 62 59 97 98 89 71 62 67 61 59 55 54 51 47 45 45 45 42 42 46 51 52 58 67 69 67 62 56 52 46 53 69 83 85 85 90 91 87
97 99 52 45 40 52 50 56 68 84 88 77 73 61 62 66 62 56 52 49 49 51 50 50 50 49 48 48 46 43 41 40 40 41 42 43 48 68 92 98 99 98 97 96
80 99 83 63 98 94 88 91 100 100 89 98 76 84 77 72 68 70 64 61 56 56 54 52 52 52 50 48 47 44 42 42 41 39 38 40 42 41 50 69 87 84 84 76
76 82 84 97 92 97 98 97 97 99 100 96 76 67 79 82 72 74 75 71 67 66 62 58 55 52 50 47 46 45 43 42 41 38 38 38 37 39 42 44 57 62 68 73
78 100 76 84 90 81 95 98 100 100 97 74 62 58 78 93 83 80 83 80 78 71 63 60 57 50 52 54 51 46 42 45 40 35 36 39 43 43 41 44 50 61 66 74
76 93 87 91 94 83 89 92 97 99 90 85 77 73 83 90 97 90 89 84 82 75 68 64 58 55 50 55 51 45 44 46 41 35 36 43 45 46 49 51 56 62 75 79
61 63 41 64 80 89 96 84 90 95 96 90 87 96 98 94 98 96 96 89 75 65 60 54 50 48 46 44 41 40 37 33 30 31 37 40 44 50 58 65 70 82 75 69
74 84 66 60 76 83 87 88 91 96 95 99 90 90 91 93 94 94 89 83 75 58 50 46 43 40 40 40 40 39 42 40 37 36 40 49 64 71 79 85 84 74 74 72
49 47 50 51 51 50 57 60 64 72 90 91 96 93 83 90 96 92 84 75 70 68 70 59 48 43 41 38 37 39 44 51 54 51 54 76 86 90 93 85 80 82 80 80
47 44 48 52 56 63 66 68 69 68 63 65 80 90 97 94 88 86 84 85 85 84 80 68 63 55 48 47 49 56 61 64 67 71 85 94 98 98 94 88 92 94 92 95
35 41 48 51 60 68 70 73 84 89 84 80 64 83 95 97 90 85 83 86 95 86 89 81 70 65 58 59 70 79 80 85 86 80 88 95 100 100 99 95 94 97 98 93
38 39 44 50 64 64 60 48 51 59 63 85 84 66 91 96 89 83 86 84 96 99 98 88 85 80 77 84 89 92 100 100 100 100 100 95 99 100 99 99 99 99 97 94
37 35 39 48 57 52 41 50 55 55 54 56 84 71 93 92 85 89 94 89 97 93 90 88 86 99 100 100 100 98 95 90 96 95 95 87 96 97 100 99 98 97 95 94
33 32 36 45 54 40 49 47 64 71 64 63 80 75 78 97 90 89 87 100 84 97 92 92 93 94 95 99 96 97 95 97 98 94 97 98 98 98 98 100 100 100 100 100
32 29 33 39 51 40 48 51 68 74 74 71 67 73 90 100 91 100 93 96 97 97 98 96 95 92 93 94 91 84 80 76 74 76 80 86 90 96 100 100 100 100 100 100
30 25 29 40 49 43 43 46 54 59 67 66 68 92 93 87 95 96 94 96 91 95 95 97 93 94 96 96 92 86 80 75 71 70 70 70 71 75 84 100 100 100 100 100
30 26 27 34 47 46 40 48 48 55 68 74 68 71 79 72 79 81 84 98 100 97 92 96 95 93 94 92 89 85 79 74 71 72 72 70 73 80 85 99 100 100 100 100
32 26 27 32 42 47 48 43 56 63 67 65 80 90 92 91 97 100 95 87 87 94 97 96 97 97 96 93 88 82 80 81 81 80 77 72 65 67 79 87 94 100 100 100
30 25 26 30 35 46 53 53 55 57 66 68 69 71 87 96 100 100 100 100 92 94 95 96 96 97 97 96 92 86 89 86 76 57 45 39 32 20 17 28 51 66 75 71
24 22 23 27 32 35 42 55 57 56 65 72 76 80 76 82 90 96 100 99 100 98 96 96 97 96 96 96 94 92 93 85 67 47 38 30 19 12 9 8 9 15 19 33
19 19 20 24 28 33 37 43 52 70 77 82 88 90 94 94 94 95 96 97 98 99 98 97 97 100 98 97 95 83 57 35 24 20 17 14 12 10 9 9 11 22 39 25
19 20 22 25 29 34 40 45 54 65 74 79 79 80 83 86 88 90 89 92 95 97 99 97 96 96 96 87 62 32 23 20 22 31 42 49 51 51 52 50 51 52 53 54
20 24 27 30 31 33 38 48 58 74 81 82 83 84 86 84 84 85 89 92 91 92 94 96 96 95 94 70 36 21 28 48 62 66 66 64 62 61 59 58 55 50 43 32
19 22 28 32 35 38 42 46 52 61 71 83 93 93 93 93 94 96 97 97 96 96 95 90 61 59 51 35 28 35 55 66 69 68 65 66 67 62 48 25 10 7 7 5
24 25 26 29 33 41 46 49 52 57 65 72 75 76 76 78 84 92 96 98 98 96 96 94 82 35 29 32 33 42 57 66 71 84 94 94 93 82 20 5 5 5 6 8
32 36 38 40 44 48 51 55 60 66 73 78 80 79 81 83 84 87 93 96 96 96 96 96 97 96 71 49 39 41 52 75 96 95 95 93 90 65 12 5 6 7 8 8
37 38 41 45 50 54 59 65 70 72 69 64 50 39 40 53 69 82 91 95 96 96 96 96 95 96 96 96 96 95 96 96 96 96 95 92 89 63 10 6 7 8 8 7

GFSNGP_700_rhum_108.txt.gz
RH
71 77 72 66 52 48 58 70 80 97 82 74 63 61 65 66 62 58 54 52 48 44 40 39 43 51 53 58 61 63 64 67 69 69 66 63 56 55 49 52 70 73 73 74
81 94 69 46 42 46 63 67 72 63 75 78 70 66 61 66 67 65 60 55 55 53 54 49 44 43 40 42 52 61 67 70 71 67 61 55 50 48 44 52 72 85 84 84
82 75 76 85 88 99 100 100 98 99 99 78 73 70 72 70 68 68 67 62 58 57 58 56 53 51 49 49 48 48 47 45 42 41 40 41 42 41 43 53 70 88 93 97
69 71 74 88 89 96 98 100 99 97 96 99 89 83 80 78 80 74 70 69 64 60 59 60 60 58 56 54 52 49 48 46 44 42 42 40 39 39 41 46 55 63 81 88
83 71 68 78 88 83 83 94 99 99 99 90 76 69 61 65 81 84 81 82 75 67 63 62 60 57 57 57 55 53 51 50 48 47 44 43 42 43 46 46 50 52 60 68
55 71 51 85 81 80 81 96 89 93 92 87 92 92 78 72 88 93 95 96 87 84 76 70 66 60 57 54 54 56 57 59 55 50 51 48 43 43 49 55 53 50 55 80
62 66 41 52 56 79 96 85 82 88 86 89 94 91 98 98 99 98 98 96 96 91 87 80 73 67 62 60 58 56 54 55 49 46 47 46 39 37 43 47 53 62 70 75
48 70 54 45 57 68 63 55 62 68 74 86 91 94 94 89 90 94 97 97 96 95 73 63 57 53 49 46 44 44 43 42 39 37 36 36 36 40 47 64 69 72 84 88
36 36 40 41 46 47 50 53 55 59 57 57 74 92 96 96 96 90 95 96 87 82 76 75 63 60 54 49 45 40 38 37 38 46 52 53 51 57 74 82 85 90 96 92
33 33 35 38 40 41 46 58 64 64 69 72 64 58 82 97 93 89 87 88 85 81 78 79 74 60 60 55 49 47 45 45 48 59 71 72 68 82 90 96 100 100 95 92
26 32 36 36 35 37 50 52 51 61 66 58 66 70 56 72 93 93 85 80 80 89 86 82 84 77 68 62 56 59 66 70 77 85 89 90 98 100 100 100 100 98 94 93
29 32 32 30 30 44 45 37 41 42 52 57 49 56 70 64 77 94 88 78 81 82 97 100 93 91 84 72 76 82 99 100 100 100 100 100 100 100 99 99 99 99 98 98
28 31 29 27 32 45 35 39 42 41 44 43 46 50 69 69 88 98 82 81 82 90 92 93 91 86 91 100 96 99 95 99 99 99 100 100 100 100 99 99 98 98 99 99
28 28 26 24 30 42 32 40 45 42 38 45 51 56 73 73 100 100 88 80 76 94 94 89 94 94 96 100 100 96 94 97 98 97 98 98 98 99 96 100 98 99 99 97
27 27 24 24 31 39 32 40 45 44 48 57 66 66 65 66 99 99 83 75 87 82 84 98 97 96 94 90 88 86 82 83 82 81 84 91 94 98 98 97 97 98 99 100
25 26 23 23 27 34 36 37 42 43 49 54 60 69 80 86 97 100 98 98 85 86 92 96 96 95 95 95 93 92 91 88 86 85 82 78 74 74 83 99 100 100 100 100
22 23 20 22 23 30 42 40 41 49 47 48 56 70 69 81 82 91 100 100 100 100 97 97 98 99 100 95 94 95 92 90 86 78 76 74 74 72 72 76 86 100 100 100
22 21 20 20 23 25 34 43 43 45 52 56 57 57 65 66 70 74 94 100 100 100 100 98 94 97 97 98 98 97 95 93 85 83 82 82 80 77 73 72 81 95 100 100
21 20 17 17 19 24 29 37 46 49 48 49 59 65 67 66 65 80 93 93 94 98 97 99 98 97 95 97 96 97 96 96 92 89 83 73 60 56 51 41 31 45 80 94
20 17 14 14 17 20 25 30 36 46 56 59 64 69 77 79 84 92 96 98 98 96 96 94 95 96 96 97 96 96 96 96 96 91 80 61 43 30 21 15 11 10 14 22
19 14 14 15 16 18 23 29 35 41 48 57 67 75 77 81 87 93 94 94 92 93 95 97 96 96 98 97 96 96 96 96 82 53 33 25 22 19 16 14 12 10 10 12
16 14 15 18 19 22 27 32 37 45 55 65 70 74 79 81 81 82 82 84 87 86 84 82 84 94 95 97 97 95 93 74 40 25 18 19 24 28 30 31 30 28 28 31
16 15 15 17 21 26 30 34 38 44 54 57 62 76 85 88 91 92 95 93 91 94 96 95 93 87 90 95 96 95 95 84 53 38 53 61 63 63 62 61 60 59 58 56
15 15 16 18 20 24 29 34 40 43 47 52 56 60 65 71 78 82 88 92 97 98 97 96 97 98 91 91 95 94 95 93 76 68 68 69 69 67 65 62 54 38 21 12
17 20 21 24 28 33 38 40 41 45 51 56 58 66 73 76 78 81 82 82 84 92 98 96 96 97 98 94 78 67 36 56 75 74 74 75 74 75 77 73 47 10 6 7
23 25 27 31 34 37 40 43 46 50 57 64 67 67 59 48 40 44 60 75 85 92 98 96 96 96 96 96 96 87 46 38 54 69 73 89 97 96 95 95 62 9 7 10
28 30 32 34 36 40 43 47 52 55 66 69 51 31 20 17 16 16 16 15 15 17 29 72 94 96 96 96 96 96 96 94 79 70 80 96 96 95 95 95 55 9 10 13

GFSNGP_700_rhum_111.txt.gz
RH
83 87 89 82 59 59 60 79 88 85 92 96 98 95 92 82 65 63 61 56 50 46 46 51 55 54 54 56 69 81 92 76 64 62 58 58 57 53 50 50 53 62 66 66
75 88 86 62 58 44 51 87 89 93 72 86 78 88 74 78 75 69 59 53 52 50 46 44 42 47 55 60 63 62 62 63 67 67 68 72 72 70 66 60 58 52 56 73
75 63 81 85 90 91 100 100 99 100 93 80 71 74 72 72 74 75 74 70 60 54 53 54 52 49 50 52 53 59 65 70 72 75 78 80 72 57 47 44 47 47 62 80
77 72 73 96 77 90 97 94 97 88 87 93 88 81 85 78 79 78 73 75 72 67 61 56 55 53 53 52 52 51 51 51 51 49 46 43 42 42 42 45 48 57 69 85
79 50 58 74 72 86 95 90 94 94 91 86 82 79 68 69 78 75 76 77 76 80 84 80 67 58 57 57 56 56 54 52 51 49 47 45 44 43 43 43 44 50 64 82
72 64 42 74 54 67 72 90 82 90 90 86 80 100 91 76 72 71 82 89 86 80 76 73 69 66 63 59 57 57 56 56 55 51 51 49 47 46 45 43 42 44 48 51
65 64 45 26 35 45 89 86 71 75 81 83 83 82 76 89 91 85 85 92 98 98 91 84 78 74 74 71 65 59 56 54 51 52 53 54 54 49 49 47 42 42 49 55
63 71 54 26 33 58 54 42 48 45 47 52 59 75 83 82 78 76 75 83 85 97 100 96 89 83 76 72 68 65 62 58 55 53 52 53 49 46 50 47 42 43 49 58
32 51 31 28 35 35 40 44 46 53 56 61 58 54 64 86 92 87 92 88 91 86 85 92 90 78 72 62 53 48 44 43 43 46 45 47 49 50 48 46 47 55 63 69
25 27 27 31 34 32 32 38 47 50 59 57 57 65 61 56 85 98 91 94 90 90 86 83 81 77 78 70 59 54 51 48 46 44 44 47 59 68 66 60 60 74 82 87
18 21 26 28 28 25 28 36 29 32 36 43 45 46 61 65 58 76 93 87 88 84 78 82 82 81 85 78 68 61 57 54 55 57 59 66 82 88 85 90 98 100 100 98
27 19 24 23 23 24 30 29 31 36 36 34 35 36 48 50 67 61 80 93 87 76 76 76 84 88 85 82 77 73 75 81 84 98 98 99 100 100 100 100 100 100 100 99
14 21 24 22 20 22 27 25 33 35 22 26 27 27 42 45 65 61 68 91 91 76 72 72 83 90 88 84 76 78 99 89 94 96 98 95 99 100 99 100 100 99 98 98
16 20 21 21 17 17 26 26 33 34 28 25 33 40 40 43 62 65 98 99 83 80 78 73 81 87 97 99 96 86 81 94 97 98 97 98 89 99 98 99 97 98 99 99
16 18 20 18 15 17 23 26 30 35 34 35 45 48 51 57 59 78 91 87 80 80 87 85 88 100 100 98 98 95 93 88 85 89 90 85 87 97 97 97 98 96 100 99
15 16 19 17 14 16 23 32 28 36 39 40 46 52 54 52 53 57 76 80 80 89 87 90 95 100 100 99 98 96 94 93 93 93 93 94 96 95 95 92 85 96 97 98
12 16 17 14 12 14 19 26 32 33 42 48 45 53 69 70 70 79 89 76 90 100 93 90 91 91 94 96 96 98 96 96 95 94 94 95 95 95 95 93 92 94 96 96
12 14 13 11 11 13 18 21 26 33 39 40 48 52 57 58 62 69 76 76 88 87 95 99 98 98 94 97 98 97 97 97 98 99 98 96 93 94 94 90 85 80 81 97
13 13 11 10 9 9 14 16 19 22 28 38 47 50 53 57 63 64 67 70 76 82 93 96 99 100 99 98 96 96 97 97 97 97 98 96 94 89 85 81 77 75 66 69
13 12 10 9 9 10 12 15 19 23 25 29 35 44 52 60 66 72 77 83 83 88 94 97 98 96 95 95 95 96 96 96 96 96 96 97 96 96 69 37 22 18 18 19
14 13 11 10 10 12 15 19 22 26 29 32 36 40 45 50 61 70 73 73 78 80 82 82 82 81 80 80 86 92 93 95 96 96 96 96 94 65 45 31 25 20 16 12
15 14 12 11 12 14 17 20 23 27 30 33 36 42 44 52 66 74 82 83 86 87 87 86 88 88 84 78 75 76 84 94 96 96 95 91 76 61 27 14 12 11 10 10
15 13 12 12 13 15 18 21 24 29 32 36 41 43 48 54 58 62 69 72 79 82 86 90 92 94 94 91 89 86 89 91 97 96 95 95 88 60 50 54 55 55 55 53
15 13 13 15 17 18 20 23 28 35 38 41 45 51 54 59 66 64 68 75 78 80 83 86 90 92 92 95 96 95 92 95 98 93 94 96 96 94 76 70 68 66 62 57
15 16 18 20 20 22 24 27 32 38 43 44 49 53 60 62 57 49 40 37 42 51 62 69 76 88 90 95 96 96 97 95 92 93 95 96 96 96 91 77 72 64 41 18
19 21 24 23 23 26 28 31 35 39 44 50 53 59 59 49 32 20 17 16 17 16 16 15 15 19 54 87 94 96 97 97 96 94 94 94 95 96 95 95 95 94 91 60
24 25 25 25 26 30 33 35 36 40 48 53 59 65 60 48 29 21 19 19 21 22 20 15 12 13 14 16 38 90 97 96 96 96 96 82 67 75 86 96 96 96 96 95

GFSNGP_700_rhum_114.txt.gz
RH
62 82 84 78 47 49 51 65 88 81 82 96 98 88 92 73 71 68 63 58 54 52 52 54 57 56 55 49 64 85 88 94 99 96 90 85 70 60 60 59 56 57 64 67
49 37 34 40 49 44 56 82 86 90 98 98 99 85 72 68 68 68 62 58 58 54 48 45 45 50 56 60 60 59 79 90 99 95 92 87 70 68 69 70 68 65 60 56
77 55 75 82 78 75 88 99 92 98 82 81 79 76 63 62 68 67 67 68 64 61 59 56 54 53 58 66 71 74 75 77 88 94 86 79 75 75 73 69 66 58 52 53
52 74 87 51 54 67 65 63 73 78 80 81 90 97 78 77 64 66 72 71 69 68 66 64 61 60 58 57 58 61 69 77 84 85 84 82 78 75 64 47 44 46 46 47
63 66 48 63 45 61 47 46 61 65 69 81 81 89 95 80 73 75 72 74 76 75 75 70 70 69 64 59 57 56 54 53 53 52 51 50 48 46 44 43 42 42 45 51
52 71 56 67 30 36 38 66 66 59 73 78 83 87 92 85 86 77 69 66 60 67 72 75 74 72 63 62 63 61 60 59 59 58 57 55 52 51 50 48 46 45 45 45
70 66 45 32 22 27 58 48 40 38 38 45 58 70 76 81 80 96 89 81 77 64 65 72 72 73 72 68 66 64 63 62 63 61 58 56 54 53 54 56 52 49 47 45
54 66 59 22 23 31 29 33 31 33 37 44 46 48 46 63 80 82 81 84 90 83 76 75 75 77 79 76 72 69 67 64 63 60 57 55 55 56 56 57 57 57 58 53
35 39 25 22 22 25 28 32 27 40 45 47 46 46 54 54 53 79 83 83 85 88 84 75 73 78 84 84 78 66 57 52 50 50 51 48 49 52 54 55 55 53 51 48
22 21 19 21 22 23 21 24 27 38 33 38 42 43 46 56 59 53 75 88 84 88 97 89 83 85 83 75 76 68 65 58 50 48 46 45 44 49 55 64 64 60 60 64
15 17 18 19 20 20 19 21 26 24 30 32 28 29 32 42 52 62 56 73 85 82 86 84 80 81 82 82 77 70 67 62 56 50 50 49 51 54 58 77 80 77 75 78
13 12 15 16 18 18 15 17 22 25 28 19 16 20 19 27 41 47 61 55 73 87 84 80 72 76 80 90 86 79 72 72 66 65 70 70 78 86 90 99 97 91 86 84
10 11 14 17 17 16 13 15 21 26 26 21 17 20 17 26 36 37 54 55 55 63 78 77 69 69 75 86 91 88 82 78 91 95 100 100 100 99 100 100 93 100 92 100
8 12 13 15 16 14 11 12 18 19 26 27 20 20 25 31 34 36 47 54 52 56 68 76 70 66 65 80 96 99 89 81 83 93 96 96 98 98 95 99 100 94 98 95
7 11 12 15 14 12 10 11 14 19 25 33 28 27 26 32 40 48 54 49 58 76 82 71 72 74 75 88 96 98 98 95 90 86 85 89 94 94 94 99 100 98 98 100
7 8 11 12 12 10 9 10 12 19 23 29 35 36 36 40 46 51 53 57 72 87 83 73 72 82 89 88 93 100 100 98 97 96 95 95 94 95 98 96 93 95 96 97
8 7 10 11 12 9 9 9 10 13 20 27 32 40 44 50 61 62 60 68 80 96 92 91 88 95 98 89 87 95 99 98 98 100 100 98 96 96 96 94 95 95 96 96
9 8 8 9 9 8 7 8 9 12 17 21 27 34 38 42 47 54 62 66 69 73 74 78 92 100 100 100 100 96 92 97 100 100 98 99 100 99 98 97 96 96 96 95
9 10 9 9 8 7 7 8 9 10 13 15 18 24 28 35 45 53 60 68 72 78 87 90 97 100 99 97 98 98 98 96 96 96 96 97 97 99 97 96 94 94 95 96
9 10 10 9 8 8 9 9 9 10 12 13 17 20 23 30 36 44 47 54 59 68 74 82 85 86 86 86 85 82 81 84 89 92 95 95 96 96 97 97 96 96 66 45
10 12 11 10 9 10 11 11 11 12 14 14 18 22 26 29 32 39 44 50 61 73 81 90 94 93 92 91 91 89 82 73 67 68 80 93 97 96 96 96 96 95 71 31
13 13 12 11 11 11 11 12 13 14 15 18 22 26 28 33 36 40 43 44 57 63 70 76 78 81 82 86 93 95 93 88 80 76 75 84 97 98 97 96 90 63 47 31
15 14 13 12 11 11 13 15 15 15 17 20 25 28 33 36 38 38 47 57 61 65 70 75 78 82 84 86 87 90 91 94 94 90 88 85 98 98 94 95 95 82 45 16
15 15 14 11 11 14 18 18 16 18 21 23 28 33 36 37 42 48 50 49 44 33 28 32 38 46 41 49 71 85 96 99 99 97 96 92 99 97 97 97 96 96 94 79
16 15 12 11 16 21 20 18 18 21 25 28 31 35 38 42 46 49 49 35 24 17 17 18 17 16 15 15 15 25 74 95 96 96 96 96 98 95 97 97 96 95 95 93
15 12 13 20 24 23 20 20 21 24 28 30 31 32 34 38 47 55 58 50 37 26 21 21 22 24 23 16 12 12 14 32 87 97 98 98 96 96 96 97 96 97 96 95
12 15 24 26 25 21 20 23 24 26 25 23 21 23 31 34 41 48 52 60 62 59 52 41 32 27 21 16 12 10 10 14 16 56 99 100 97 96 96 95 94 95 96 96

GFSNGP_700_rhum_117.txt.gz
RH
49 51 44 43 46 49 51 58 80 79 96 82 85 91 89 82 78 74 67 61 55 52 52 57 61 59 55 51 55 69 77 95 99 99 100 92 96 95 80 63 56 57 62 67
54 61 39 40 44 42 66 77 70 82 88 88 86 86 79 78 69 70 72 68 66 61 54 52 49 52 59 62 60 56 78 93 100 99 98 97 98 94 89 73 58 58 58 57
41 58 75 65 46 47 49 56 62 66 71 75 72 57 55 62 60 66 70 72 71 67 66 61 55 52 54 60 63 71 75 83 86 89 87 84 92 95 84 76 76 74 69 64
43 68 63 37 52 56 54 55 57 57 69 80 62 62 74 67 67 66 66 70 69 70 71 71 71 68 61 57 58 67 77 85 89 87 90 91 93 90 83 80 78 76 60 47
35 63 51 42 30 30 36 40 48 53 70 80 63 61 75 77 73 69 66 67 69 70 71 69 69 70 71 70 66 62 60 58 57 58 62 68 71 75 68 59 49 43 42 42
33 58 64 33 28 22 25 60 38 38 59 67 75 62 56 67 73 71 70 67 72 69 66 67 66 67 65 63 65 65 65 65 64 62 59 58 56 54 54 52 50 48 46 45
38 50 26 25 27 22 31 26 26 29 34 36 37 38 48 54 61 67 80 78 71 66 61 59 64 69 66 62 61 61 61 60 61 63 63 62 61 60 59 56 54 52 50 51
34 58 34 18 18 22 17 21 21 22 26 31 34 40 42 42 40 57 67 69 72 71 69 69 66 63 61 67 68 65 63 60 61 61 62 62 62 62 60 58 56 54 52 54
27 13 14 15 14 16 18 18 18 22 21 24 29 30 32 35 41 44 46 67 64 65 71 70 66 65 65 66 67 70 73 76 73 64 60 58 57 58 58 56 55 56 57 60
20 12 12 15 13 15 15 15 15 20 23 26 27 25 27 30 34 37 45 46 67 62 60 66 71 69 64 63 66 64 65 69 68 64 59 53 50 49 49 49 52 56 60 68
15 10 11 12 12 13 13 12 14 18 21 22 23 18 17 18 20 29 41 49 47 58 69 67 66 61 58 59 59 65 66 67 69 68 62 59 57 53 52 53 53 60 70 75
20 8 9 9 11 11 12 12 12 15 16 18 20 15 14 11 11 20 34 49 50 45 54 68 71 65 60 56 58 65 71 71 68 66 65 63 67 69 66 64 65 72 88 94
28 19 8 10 11 11 12 12 10 12 13 17 19 17 15 15 17 22 30 36 48 50 45 53 60 65 61 57 57 59 68 78 84 79 72 86 99 100 98 99 98 100 100 100
15 14 8 9 12 13 11 10 9 10 13 16 19 19 20 17 21 27 30 35 43 52 52 49 48 62 69 64 64 63 80 86 78 80 85 87 94 94 92 97 98 98 99 94
16 8 8 10 11 11 10 8 8 9 10 11 15 20 24 26 27 29 31 40 47 51 52 80 96 98 94 80 84 80 84 90 96 94 95 92 89 89 90 89 95 97 98 98
13 7 7 8 11 10 8 7 6 7 8 8 10 16 24 28 34 38 39 42 50 58 62 77 100 100 100 100 100 100 97 94 95 94 95 97 97 96 96 97 98 94 92 97
30 13 7 6 7 8 8 6 6 6 7 8 9 11 16 26 34 40 47 50 53 56 58 70 84 96 96 99 100 99 98 97 96 96 98 98 99 98 95 93 95 96 96 96
27 18 8 7 8 8 7 7 7 7 7 7 9 10 14 16 22 28 37 43 48 55 57 65 73 80 85 94 93 93 96 99 99 97 96 97 96 96 96 97 97 96 97 98
26 23 13 8 8 8 8 8 8 8 9 9 9 11 13 15 19 20 26 30 34 42 50 61 70 78 85 83 81 85 86 85 83 82 84 88 95 96 96 96 96 96 97 99
19 23 16 9 9 10 9 9 10 11 11 11 12 14 16 18 21 22 23 30 30 37 47 58 68 78 77 82 92 96 96 95 93 89 80 71 67 72 87 97 96 96 96 96
10 15 13 11 11 11 10 10 12 12 13 14 15 17 20 20 21 25 26 31 35 38 47 54 59 62 65 71 76 82 85 89 92 91 92 88 74 69 73 92 99 96 96 96
9 10 11 13 13 12 11 12 12 13 15 16 16 17 21 22 23 27 30 32 40 46 51 53 56 59 64 71 79 82 83 85 88 94 96 94 90 83 75 86 95 98 97 96
10 10 16 18 16 14 12 12 13 16 18 17 17 20 23 26 27 30 37 40 44 44 45 36 28 26 27 34 34 26 29 43 71 89 95 94 94 92 86 88 99 96 97 96
13 13 21 21 17 13 12 13 18 20 18 17 20 22 24 25 26 30 37 40 43 45 36 28 21 18 18 18 18 17 15 15 15 33 87 96 97 95 96 95 100 100 98 96
16 20 24 22 18 13 13 20 22 20 18 19 21 22 22 21 26 30 35 40 45 52 56 53 49 42 33 26 23 24 25 19 12 12 16 70 96 96 97 99 97 96 99 97
22 24 26 24 16 16 22 25 22 19 20 23 23 19 17 17 21 26 29 33 38 40 38 36 32 28 26 26 26 24 22 18 15 12 12 16 53 96 96 97 99 96 97 97
31 28 26 20 18 24 27 25 19 20 23 21 16 15 16 19 21 24 25 24 22 21 22 26 31 34 36 36 36 36 36 30 22 19 14 15 18 43 96 96 96 98 97 96

GFSNGP_700_rhum_120.txt.gz
RH
41 46 46 45 44 43 45 56 72 54 61 80 83 85 91 88 83 74 66 60 55 53 58 63 62 58 57 54 54 72 87 89 91 100 100 100 100 99 100 100 99 98 100 99
54 45 42 43 41 43 52 54 55 59 55 61 59 61 76 78 74 76 72 66 64 58 55 51 52 55 60 60 57 51 58 81 90 100 99 99 95 100 99 98 96 97 93 88
42 56 48 34 37 40 46 51 55 56 55 54 57 53 51 51 55 64 74 72 69 69 65 61 57 52 55 57 61 64 64 65 85 97 100 84 77 99 99 96 91 88 80 73
41 52 34 18 30 33 34 36 39 46 53 52 57 55 57 64 67 61 65 67 71 69 66 64 62 60 58 55 57 64 71 75 79 84 85 90 93 87 88 95 97 98 96 78
26 32 36 21 16 20 22 21 36 35 48 48 50 50 58 59 66 66 66 64 63 64 67 68 65 60 61 59 57 59 62 61 64 72 82 94 100 99 97 84 95 98 85 72
22 34 47 17 17 19 20 30 18 20 28 40 30 29 42 57 61 57 58 65 64 62 60 60 61 61 63 63 60 58 57 60 62 65 64 62 60 59 60 68 72 64 50 46
21 25 11 14 14 16 25 14 16 20 22 26 25 26 32 31 34 54 55 61 62 62 64 62 58 55 53 54 57 58 59 59 58 59 60 62 63 64 63 61 60 58 56 54
25 33 23 10 11 15 12 12 14 16 19 22 23 24 26 29 32 34 34 49 60 62 62 62 64 64 60 55 53 52 53 56 57 56 56 58 59 59 56 56 58 59 58 58
17 11 10 11 11 12 12 13 14 14 16 18 18 20 22 20 22 30 36 36 52 62 57 54 56 59 60 59 59 60 62 68 72 73 73 73 71 64 60 58 58 58 59 58
22 12 12 11 10 10 10 11 10 10 12 14 16 19 15 13 14 15 27 34 36 43 59 64 59 54 55 56 56 55 57 60 60 60 61 66 68 62 56 51 51 52 55 59
20 19 15 8 8 10 10 10 9 8 10 12 15 17 13 11 10 8 11 21 33 35 35 54 61 60 57 57 54 52 53 53 61 63 64 63 62 63 60 59 57 52 53 53
32 34 30 16 9 8 9 8 9 8 8 10 12 16 14 11 10 9 8 12 20 29 35 35 40 53 54 60 61 57 54 54 58 64 66 65 64 64 71 71 67 67 66 64
39 39 34 22 13 8 9 9 8 7 6 8 10 12 13 14 12 11 12 16 21 24 30 37 38 38 38 57 59 53 57 53 54 57 65 73 74 71 80 100 95 91 91 86
40 36 23 12 13 10 10 9 7 7 6 7 8 9 11 16 15 16 15 16 18 19 22 28 33 37 38 39 41 48 57 55 56 56 64 66 82 92 90 87 92 94 95 98
32 26 19 16 8 8 8 8 7 7 7 7 7 8 10 15 18 21 23 25 25 27 29 34 37 40 50 54 67 76 73 68 68 69 78 91 94 91 94 97 96 91 88 92
32 37 37 32 8 7 7 7 7 7 6 7 7 8 9 12 17 23 29 34 35 41 45 49 54 64 65 73 78 79 81 82 74 69 79 94 97 96 96 97 99 99 97 94
32 32 34 37 22 8 8 9 8 7 7 7 7 8 8 9 11 14 19 21 25 30 37 43 52 52 57 59 59 66 75 75 77 84 90 94 93 95 98 98 97 98 99 98
32 32 35 37 26 8 7 8 8 8 7 8 8 9 9 10 12 14 17 20 23 27 28 34 38 45 52 54 61 64 64 67 75 81 85 86 86 88 92 95 96 96 96 97
28 27 31 31 26 10 8 8 8 8 8 9 10 11 11 12 13 15 18 19 21 27 30 32 38 46 52 57 59 66 80 86 90 91 88 88 88 87 81 71 68 84 95 96
36 31 24 29 28 16 10 9 9 8 9 12 13 13 13 14 15 16 18 21 22 27 31 36 41 45 48 53 56 64 71 75 79 84 85 84 84 82 84 83 74 64 65 88
38 35 32 22 29 20 13 12 10 9 11 12 13 15 16 17 16 18 20 25 26 29 32 36 39 43 46 48 53 60 66 74 77 73 75 82 86 91 91 92 86 75 68 75
41 35 26 20 29 23 17 14 12 11 12 12 14 18 18 17 17 20 22 27 31 34 36 36 36 38 36 30 24 23 29 34 26 20 18 28 67 90 94 92 93 84 77 85
39 38 22 21 27 23 20 17 14 12 12 13 18 20 19 18 19 22 25 27 29 31 32 34 37 38 37 31 23 19 19 20 19 18 16 15 15 41 88 94 97 93 83 87
60 36 28 24 25 25 24 20 15 13 13 18 22 20 18 19 21 23 25 28 27 29 34 35 36 40 46 51 53 53 50 44 35 30 27 24 16 13 26 84 95 98 94 87
64 52 30 20 26 32 26 19 14 14 19 22 21 18 18 21 21 20 19 20 22 25 30 29 30 30 28 25 26 26 27 27 26 24 26 24 20 14 14 22 85 97 97 96
74 52 24 25 39 37 28 18 15 20 24 22 19 20 20 18 17 18 20 20 21 20 16 17 22 28 30 29 27 25 24 26 32 37 37 34 26 20 16 16 29 94 98 96
76 30 26 29 38 35 24 18 21 26 25 22 22 19 15 16 18 19 14 10 12 19 26 27 20 15 15 17 20 23 25 26 25 24 25 31 43 43 32 22 21 38 99 99

GFSNGP_700_rhum_123.txt.gz
RH
41 43 43 42 42 40 42 49 58 52 67 76 74 75 73 72 72 72 67 61 61 65 65 65 63 61 57 56 54 62 82 87 84 92 98 97 98 99 100 100 100 100 100 100
38 43 43 38 39 45 48 48 52 55 56 59 60 53 48 60 69 68 67 64 58 59 61 61 60 59 58 56 58 57 56 68 86 86 95 89 91 85 94 98 100 100 100 100
21 32 27 23 29 35 36 43 48 51 51 62 66 60 55 54 48 58 68 66 64 60 57 56 56 55 58 56 58 61 66 67 70 88 96 92 83 67 100 100 99 100 100 100
17 16 22 8 15 20 19 19 25 29 47 52 58 61 57 54 53 53 56 65 70 66 63 59 56 55 53 54 56 59 70 80 85 86 91 100 94 86 76 84 100 99 97 98
18 17 10 8 9 14 15 13 15 15 24 34 43 46 52 54 58 64 65 66 64 64 64 63 63 62 59 55 55 57 57 57 61 70 82 91 95 97 98 98 100 95 83 87
16 20 25 9 8 10 12 12 10 14 16 19 22 21 29 27 33 51 54 53 57 59 59 60 57 55 56 56 56 56 55 56 58 58 58 61 61 62 71 77 87 90 88 92
18 17 7 7 8 10 13 7 8 11 13 16 18 19 22 25 27 29 31 47 48 51 51 50 53 53 53 52 50 49 50 54 57 58 59 61 62 64 64 64 62 62 61 62
17 19 13 7 9 11 9 9 10 10 11 13 16 19 21 22 22 23 24 28 32 44 46 48 47 48 47 47 47 47 47 46 45 45 48 50 53 54 57 59 60 60 60 61
21 14 16 17 13 11 9 8 8 8 8 9 12 15 16 18 15 16 17 22 25 31 42 49 46 44 42 41 45 47 48 48 48 47 48 51 51 51 51 54 60 61 58 58
27 19 23 18 12 9 9 9 8 7 7 7 8 11 12 12 11 10 11 11 16 23 30 36 46 48 47 44 43 41 42 42 40 41 43 47 48 49 52 53 62 62 57 52
29 25 32 31 30 18 7 7 6 6 5 6 6 7 9 10 9 8 8 7 8 15 22 26 29 37 46 52 52 52 50 47 44 42 41 44 49 54 56 58 58 60 63 62
31 35 36 35 37 34 18 7 7 5 5 5 5 6 6 8 9 9 8 8 8 10 14 21 28 30 33 33 36 44 48 58 57 50 52 49 47 50 58 61 61 59 65 71
28 28 31 35 34 33 20 12 7 6 5 5 5 6 6 7 8 8 10 10 10 12 16 18 21 26 31 34 34 33 34 44 54 49 56 55 52 51 53 77 75 73 68 74
31 29 33 34 28 21 10 10 8 7 6 6 6 6 6 7 7 8 10 13 14 14 16 18 21 23 25 28 30 32 35 38 40 46 52 59 56 57 60 62 80 96 99 87
29 30 34 30 33 26 17 8 8 8 7 6 6 6 7 7 8 8 9 11 15 19 23 26 30 33 37 41 44 48 49 53 56 59 64 62 60 59 64 83 93 93 92 96
38 41 35 27 29 34 36 26 7 8 8 7 6 7 7 7 8 8 8 8 10 12 18 22 27 29 32 31 34 34 33 36 42 45 45 49 60 73 83 91 94 97 97 97
36 32 33 32 29 31 36 38 11 8 9 6 7 7 7 8 9 9 9 8 8 9 10 13 16 17 21 24 25 28 28 33 37 38 43 51 64 76 84 86 83 86 94 97
37 37 35 34 34 33 35 37 16 8 7 9 7 8 9 11 12 13 12 10 10 10 10 11 13 16 20 22 25 30 33 36 39 44 50 56 64 71 77 82 85 85 82 75
34 35 35 35 28 32 34 37 21 9 9 9 8 8 10 13 15 16 14 14 13 12 12 13 15 19 22 24 26 29 33 35 39 47 55 62 69 74 79 82 84 88 89 85
43 42 42 39 30 26 31 36 22 10 10 10 9 9 12 13 15 16 18 17 15 13 15 17 19 22 24 26 26 27 29 32 36 42 49 60 56 47 50 66 78 85 88 87
46 47 42 40 37 34 27 32 23 12 12 11 10 10 12 13 15 18 19 17 15 15 17 19 21 24 22 22 24 27 30 30 26 19 18 23 21 17 16 16 42 81 89 90
59 56 51 43 43 33 30 32 25 16 15 13 10 11 13 13 18 21 20 17 17 17 20 21 21 21 23 24 26 32 37 39 40 36 30 25 22 21 20 17 15 28 82 91
47 44 57 58 40 29 28 32 25 20 21 16 12 12 13 16 22 22 18 18 18 20 21 19 20 21 21 23 27 30 29 26 26 28 32 38 45 43 34 27 23 14 30 86
46 41 48 68 58 33 26 30 29 27 24 16 14 13 16 22 23 20 17 18 19 18 17 18 18 17 18 19 20 22 24 25 27 29 31 33 32 29 26 26 26 21 15 45
48 52 58 61 70 38 32 32 31 30 24 17 15 16 22 24 21 19 18 16 16 17 15 12 11 15 20 21 15 10 11 13 15 16 18 20 22 26 34 38 31 24 19 21
59 62 69 69 55 36 36 36 35 32 22 16 18 24 25 22 22 19 15 16 15 8 7 13 20 16 9 11 15 18 21 22 23 23 24 24 25 25 24 26 39 43 31 24
74 67 72 78 62 36 41 45 39 29 20 21 26 27 25 24 20 16 16 10 6 10 18 14 9 14 18 20 21 24 26 29 30 31 32 33 34 33 31 29 28 34 47 37

GFSNGP_700_rhum_126.txt.gz
RH
32 31 31 32 33 37 46 50 51 54 58 71 68 50 63 65 65 68 68 64 61 65 72 78 75 67 64 58 57 61 72 80 81 83 95 95 99 99 99 98 98 99 99 100
25 25 25 23 32 35 37 43 45 48 45 52 56 51 43 56 61 58 63 62 61 61 60 57 56 56 59 59 59 58 58 69 78 80 74 84 92 68 82 98 100 100 98 99
15 16 22 17 12 19 22 28 29 32 36 44 55 61 49 45 46 49 57 65 64 61 60 57 56 53 52 51 55 62 67 66 69 77 92 95 85 73 63 71 97 99 100 99
13 11 14 7 7 9 11 12 14 22 24 30 34 44 50 55 59 60 55 51 59 64 63 60 59 58 55 53 51 52 56 64 72 76 88 96 90 85 87 83 78 87 100 99
19 14 8 8 7 8 9 9 8 10 15 23 29 31 29 35 39 46 54 59 58 57 57 59 59 58 56 58 60 58 54 51 51 52 58 67 74 83 93 97 89 95 81 90
14 17 16 10 8 8 10 7 6 7 10 13 16 18 21 21 22 24 46 52 51 56 59 55 54 53 51 48 46 51 54 56 58 58 58 57 55 55 56 56 58 63 63 77
17 13 7 7 7 10 11 6 8 7 7 9 10 13 16 18 19 20 19 24 42 44 47 46 46 47 46 45 44 42 42 42 42 44 46 51 56 59 60 60 59 57 58 58
16 16 9 16 18 17 13 11 11 11 8 7 8 8 10 12 13 13 14 15 18 22 34 40 41 42 44 41 42 42 42 40 41 41 42 42 42 42 44 47 49 51 55 58
21 16 22 23 25 19 12 9 10 10 10 8 7 7 7 9 11 10 9 8 9 12 16 24 32 43 39 38 39 38 37 37 36 37 35 34 34 36 38 40 42 47 53 58
22 22 24 28 24 28 28 19 8 7 7 6 6 6 7 7 7 8 8 7 6 7 9 13 18 22 35 35 35 35 38 39 36 36 38 38 36 34 34 32 34 39 44 48
29 28 29 30 31 33 34 33 19 7 6 5 5 5 5 6 6 6 6 6 6 6 6 7 11 15 18 19 20 25 26 33 29 25 25 30 40 42 38 37 36 37 40 44
29 28 32 30 30 30 33 34 30 18 6 5 4 5 5 6 6 6 6 6 6 6 6 7 9 11 12 14 14 17 19 23 24 24 23 25 26 35 35 34 42 44 43 41
30 34 34 31 28 28 34 34 30 17 10 6 5 5 6 6 7 7 8 7 7 7 8 8 9 10 11 12 13 14 15 16 18 21 24 27 30 33 36 46 53 52 51 53
20 30 31 31 30 32 32 26 21 11 9 7 6 5 6 7 8 8 9 9 9 8 8 9 10 11 13 15 18 20 21 21 22 16 15 12 13 14 15 14 13 20 53 69
18 33 36 35 29 29 33 31 30 20 11 8 7 7 6 7 8 9 9 9 9 9 10 10 11 13 14 15 15 15 15 14 13 13 13 14 16 16 16 16 20 25 32 54
22 26 31 35 34 34 32 30 32 34 35 24 9 8 7 7 7 8 9 10 10 10 10 9 9 10 10 10 10 10 11 12 13 14 16 17 17 17 21 27 35 43 48 52
14 15 23 33 34 36 38 39 39 36 37 35 10 11 9 7 7 8 11 13 13 11 11 11 10 10 10 10 10 12 13 15 16 16 16 16 18 22 29 37 42 47 55 65
17 19 29 35 38 38 37 35 34 34 35 39 20 11 11 9 8 9 12 15 16 16 16 15 13 12 12 12 13 15 16 17 17 16 16 19 24 28 36 42 46 44 44 55
32 36 35 30 38 37 37 36 31 34 36 38 25 11 14 13 9 10 13 15 17 19 20 18 16 13 13 14 16 16 16 16 16 17 18 22 26 27 26 32 33 23 16 19
35 35 31 25 38 42 41 38 28 30 35 38 33 13 14 14 12 11 13 15 16 20 21 18 15 14 16 17 17 16 14 15 16 18 22 27 31 31 25 19 18 17 17 16
30 30 35 30 31 37 41 40 38 31 36 41 36 15 19 18 12 12 14 15 18 22 21 18 17 18 19 17 15 14 14 14 15 18 22 26 28 33 38 45 43 32 24 23
55 58 55 52 47 42 40 41 40 35 37 40 24 18 20 17 13 14 15 17 21 22 21 20 21 21 17 15 14 10 10 12 16 18 20 21 22 24 26 28 29 34 42 39
58 56 52 54 55 48 49 43 38 31 37 37 24 23 23 18 14 15 17 21 25 24 23 24 23 18 16 12 8 11 15 15 12 10 10 10 11 13 15 18 23 30 32 29
52 52 54 48 44 44 45 58 40 32 35 32 33 32 26 17 16 17 21 24 24 25 26 22 18 15 9 9 15 12 9 12 15 17 19 20 22 22 22 21 21 21 22 34
36 33 32 36 39 39 35 54 53 33 34 33 34 33 25 19 18 20 25 26 25 26 21 18 12 7 14 14 11 14 15 16 18 21 22 24 25 27 29 30 28 26 26 26
42 35 35 39 46 44 38 48 55 34 36 39 39 32 24 22 22 26 25 25 25 19 17 7 9 15 12 14 15 16 20 23 23 24 26 29 32 35 37 38 37 36 36 32
40 44 43 48 74 67 57 65 56 37 42 44 39 30 26 26 30 29 29 23 18 14 7 11 14 14 15 15 21 23 21 23 25 27 35 40 41 42 43 45 46 46 46 44

GFSNGP_700_rhum_129.txt.gz
RH
25 28 26 26 30 33 36 40 48 42 39 39 47 43 47 62 64 64 67 64 59 57 57 63 67 66 62 67 80 90 91 88 100 100 99 100 99 100 100 98 99 98 99 98
11 22 28 20 21 24 26 26 23 32 32 40 45 46 37 43 58 57 59 64 61 57 56 52 53 56 60 68 67 65 72 78 81 84 74 86 76 80 84 87 99 100 98 99
13 15 13 14 8 12 14 15 18 16 16 25 36 44 43 43 44 50 48 55 62 60 56 54 54 52 52 48 47 54 61 64 69 68 65 74 83 74 67 58 64 87 88 94
12 11 17 7 9 10 10 7 8 10 14 13 17 26 37 37 39 38 38 46 52 57 61 59 57 56 56 54 52 51 50 49 52 60 66 71 76 76 79 82 80 77 73 76
17 13 8 8 7 7 8 8 6 7 9 11 14 13 13 20 31 37 42 43 42 44 50 55 58 57 54 49 46 50 55 54 52 51 50 51 51 51 53 53 57 58 54 58
15 16 14 7 8 9 9 8 9 8 7 8 10 11 13 13 14 15 20 39 41 40 41 43 45 45 48 49 47 42 38 40 40 40 40 42 44 47 48 50 50 49 49 51
16 14 7 8 19 18 14 9 12 10 8 6 6 8 10 12 13 13 12 13 21 31 34 39 39 39 39 39 39 40 40 40 39 39 40 38 36 36 37 37 43 40 42 49
16 17 12 17 20 24 21 15 12 11 11 8 6 5 6 8 9 10 11 10 10 12 21 26 33 34 34 36 39 36 34 34 34 33 32 32 32 32 32 33 34 36 40 42
20 16 17 19 22 26 19 15 20 18 9 9 8 6 5 5 6 7 7 8 8 8 8 11 17 23 29 31 33 32 30 30 28 29 30 30 30 29 28 28 29 28 28 27
25 23 22 25 29 28 28 26 28 25 19 7 7 7 5 5 5 6 7 7 6 6 6 6 8 9 12 16 24 28 24 22 25 25 22 20 20 19 18 18 18 22 24 21
29 23 28 30 30 31 31 32 30 32 29 22 9 5 5 5 6 6 6 7 7 6 6 6 6 7 8 9 11 13 14 15 16 16 16 15 15 16 19 20 21 22 22 23
22 20 27 30 32 32 30 29 29 30 32 31 22 8 5 4 6 6 7 7 8 7 7 7 7 7 8 9 9 9 10 12 13 15 16 18 18 20 22 20 19 17 16 14
12 14 17 18 23 34 32 32 34 28 34 32 23 13 7 5 5 7 7 8 9 9 9 8 8 8 9 10 10 11 12 14 15 15 13 11 10 9 9 10 9 9 8 8
18 18 15 16 19 32 36 37 36 31 30 23 16 10 9 8 6 6 7 8 10 10 10 10 10 10 10 11 12 13 14 13 13 12 10 10 9 9 9 8 7 6 6 7
21 22 20 21 30 31 31 32 33 31 32 32 31 19 10 9 8 7 7 8 9 10 10 11 11 11 11 12 11 11 11 11 10 10 10 10 10 9 8 7 5 4 5 8
23 22 18 19 21 23 30 35 35 31 33 37 37 34 35 20 11 9 7 8 9 10 11 12 12 12 12 12 11 11 10 10 10 11 11 11 10 8 6 5 5 6 8 11
22 20 18 15 14 18 24 34 35 37 37 38 39 41 41 36 13 10 10 8 8 10 13 14 14 14 15 14 13 13 12 12 13 13 12 10 9 7 5 6 7 10 15 20
20 19 20 24 20 23 25 30 33 33 35 38 39 40 40 38 32 13 13 10 9 11 14 16 16 17 17 17 16 14 14 15 14 13 12 10 8 6 7 9 12 16 22 24
25 18 24 30 35 34 32 31 35 35 36 38 36 36 38 39 38 19 16 13 11 12 14 16 18 20 20 19 17 16 17 16 15 13 10 8 7 9 11 13 15 18 22 28
28 25 32 35 38 36 34 27 26 38 40 38 34 30 35 39 36 22 19 18 13 13 15 17 19 21 21 20 18 19 18 16 14 11 8 8 11 13 14 14 15 16 17 22
20 24 28 31 31 28 28 38 36 38 38 39 38 31 36 42 40 22 23 24 18 15 16 18 21 23 22 20 21 20 16 14 8 7 11 13 11 10 10 11 11 12 12 13
25 28 30 38 40 51 53 52 49 45 40 41 39 35 37 43 42 23 25 25 18 19 21 22 24 24 22 22 19 15 12 7 10 13 11 11 12 14 16 18 18 19 20 19
31 36 46 54 57 58 55 49 48 48 52 41 35 36 43 44 31 27 30 23 19 21 23 25 27 25 25 19 15 8 8 12 12 12 13 15 17 20 21 22 23 24 26 26
36 38 47 49 46 46 44 42 41 43 40 47 43 35 40 35 32 32 29 23 23 26 27 28 28 26 19 14 6 9 12 13 13 14 19 21 20 20 22 24 26 29 31 32
41 42 43 43 39 36 38 33 30 30 33 38 48 37 36 36 38 36 29 24 28 31 31 30 28 20 11 14 13 13 14 14 18 21 19 19 20 24 33 36 38 39 40 41
52 52 51 50 49 46 39 31 32 36 43 47 48 40 40 44 44 35 29 30 31 33 33 27 18 24 26 13 14 14 15 20 19 18 19 22 31 37 39 40 41 42 42 43
61 60 56 51 46 40 38 40 46 59 56 65 51 49 53 52 42 36 36 35 35 35 26 27 60 32 14 15 14 18 22 18 19 20 25 34 40 40 40 40 43 48 51 53

GFSNGP_700_rhum_132.txt.gz
RH
14 13 19 20 25 34 31 33 46 41 26 30 30 36 39 47 60 62 65 65 62 56 51 54 60 62 62 68 79 80 100 100 99 100 99 98 100 100 99 100 98 99 98 98
9 12 17 11 15 17 20 21 15 17 12 21 25 32 34 35 48 55 56 62 63 59 56 52 48 45 50 58 62 65 68 68 69 90 86 92 99 95 94 86 91 99 100 87
15 10 14 15 5 7 10 9 11 11 8 10 17 25 31 33 37 46 52 45 56 59 60 57 54 51 47 43 42 44 50 53 59 56 68 72 65 62 57 65 83 98 100 92
16 14 34 5 5 6 7 6 5 6 7 8 8 10 15 23 29 32 35 34 38 48 58 57 56 53 50 47 48 50 48 46 44 44 51 59 66 68 67 65 63 60 55 48
20 30 9 6 5 5 9 6 5 4 5 6 7 7 8 9 13 19 26 30 32 34 36 42 50 51 52 48 44 43 49 51 51 48 46 45 45 44 45 45 43 42 42 42
21 32 21 5 5 14 15 8 5 7 6 5 6 6 7 8 8 10 11 15 24 28 31 33 34 35 37 38 42 42 39 36 38 37 38 39 40 42 45 48 48 48 47 46
30 18 8 6 13 18 17 12 18 11 8 7 6 5 6 7 9 9 8 8 9 14 24 29 32 33 35 34 33 34 34 35 32 32 31 32 32 34 34 35 35 35 32 33
21 19 26 8 17 20 24 26 16 14 16 10 7 6 5 6 6 8 9 9 8 8 8 14 21 26 31 35 33 32 32 32 32 31 29 27 28 27 27 26 24 24 25 26
21 19 17 20 23 20 26 28 27 26 29 25 16 7 6 5 6 6 7 8 9 8 8 7 9 16 22 25 26 28 29 29 28 26 26 26 25 25 24 22 19 18 19 19
29 21 23 24 26 27 30 29 31 32 31 30 28 23 8 6 5 6 6 7 7 7 7 7 7 9 11 14 18 23 26 23 20 16 16 17 16 15 15 15 15 16 16 15
30 13 19 19 23 28 32 31 32 32 32 30 30 31 29 11 5 5 6 7 7 8 7 7 6 6 7 9 12 14 16 16 17 17 16 15 14 15 16 16 13 12 10 9
18 15 22 17 18 25 31 34 34 33 33 30 30 31 36 29 11 6 5 7 7 8 8 8 8 8 7 8 9 10 12 14 15 16 16 18 18 16 12 10 10 10 9 8
22 24 27 25 18 15 17 16 26 36 32 31 34 32 33 29 18 8 6 6 7 8 9 10 9 9 9 9 10 11 12 12 13 15 16 15 12 11 10 10 10 9 8 7
31 31 29 25 22 19 18 15 18 31 33 33 36 32 26 20 13 10 8 8 7 8 9 10 11 11 11 11 11 12 13 14 14 14 13 12 11 10 10 10 9 8 7 5
38 37 34 34 29 21 19 22 26 30 34 34 35 33 32 32 26 15 11 9 8 7 9 10 10 11 11 12 12 13 13 14 13 12 11 11 11 11 10 9 8 6 4 4
45 37 34 33 32 25 22 19 21 32 36 38 37 36 36 36 36 35 33 15 10 10 9 9 10 12 12 13 13 13 14 14 13 13 12 12 12 11 10 9 6 4 4 5
39 36 36 35 29 22 19 17 14 16 27 29 36 38 35 37 38 38 38 38 19 12 10 9 10 12 14 15 15 16 17 16 16 14 13 14 13 11 10 7 4 4 7 8
32 31 32 27 20 20 18 18 16 13 16 26 32 32 34 36 38 42 42 42 30 16 14 12 12 13 15 17 18 18 20 19 17 15 15 14 12 10 7 4 6 8 9 9
35 28 27 28 25 20 24 29 31 32 31 29 30 34 35 37 38 38 42 42 38 22 19 16 13 15 16 18 20 22 22 20 18 18 17 14 11 6 5 8 9 10 10 10
37 34 33 33 26 30 36 36 37 35 26 21 24 35 39 40 38 34 40 42 41 28 23 19 14 15 17 19 21 24 24 22 21 18 15 10 5 7 10 10 11 11 12 14
32 26 19 23 25 30 35 33 31 43 45 44 41 40 42 40 37 34 38 43 41 31 27 25 18 19 20 22 25 26 24 23 19 15 8 6 10 11 11 12 13 15 16 16
32 23 22 26 32 35 38 45 52 56 53 48 47 45 41 38 38 37 41 46 44 34 32 30 23 23 25 29 29 27 25 20 15 8 13 13 12 12 13 16 16 15 14 15
34 33 35 38 42 47 53 56 56 51 44 40 40 44 45 45 38 42 48 49 46 40 39 33 26 26 30 32 30 28 21 12 21 22 13 13 13 16 16 15 15 17 20 26
39 38 41 43 45 50 53 51 47 41 38 38 38 27 36 42 42 42 46 47 40 40 37 30 32 35 35 32 29 19 20 37 18 14 13 14 17 16 16 17 20 27 32 34
43 44 45 44 46 50 50 50 48 48 46 39 31 29 29 40 43 44 44 42 42 44 34 34 38 38 35 30 18 43 32 16 17 14 17 18 17 18 19 26 32 35 35 36
53 50 51 51 51 54 57 56 51 42 34 30 34 45 47 51 48 44 46 53 51 41 42 48 44 38 29 31 54 35 24 24 15 19 17 18 18 22 29 32 36 36 33 35
64 60 60 61 63 60 59 53 38 35 38 38 39 55 64 60 56 56 60 61 50 48 49 45 41 27 46 55 42 32 20 16 19 16 17 19 26 29 34 39 35 34 41 49

GFSNGP_700_rhum_138.txt.gz
RH
12 11 15 14 18 39 44 22 39 22 18 9 13 19 36 21 25 26 37 40 48 48 48 45 44 48 56 68 75 81 100 100 100 100 99 96 94 84 94 98 99 100 100 100
10 18 11 10 8 9 18 21 18 15 7 8 7 8 12 16 19 22 26 39 38 45 49 48 47 44 45 46 55 65 71 95 99 100 100 100 100 100 100 100 100 100 100 100
20 29 24 16 5 5 4 5 6 9 5 5 6 6 7 8 10 17 20 26 35 32 35 45 47 49 48 48 48 45 47 65 81 92 98 99 100 99 100 100 100 100 100 100
21 24 64 18 9 4 3 3 5 4 4 4 4 5 6 6 7 9 14 20 23 31 31 28 36 44 46 47 47 48 47 47 50 66 83 84 78 72 74 77 81 89 96 95
44 48 24 20 8 11 6 5 8 6 10 8 6 3 5 6 6 7 7 10 15 19 21 23 24 26 32 41 42 44 40 39 44 45 45 47 50 61 67 64 62 58 52 48
67 52 46 19 16 4 6 12 13 22 24 17 8 7 4 6 6 7 7 7 7 9 15 19 20 21 23 24 26 28 29 32 33 31 33 35 36 37 39 41 43 41 36 36
33 46 25 18 22 16 12 16 22 23 25 25 18 16 9 6 5 6 7 7 8 7 7 8 15 20 22 23 24 26 28 29 30 28 28 27 29 29 26 26 26 26 27 29
41 61 44 19 16 13 15 17 20 24 23 25 27 28 22 15 6 5 5 6 7 7 8 7 7 8 12 20 23 24 26 28 29 30 30 29 28 27 28 26 25 23 23 23
23 16 16 16 18 19 22 22 23 25 24 24 26 28 30 30 25 16 6 5 6 7 7 8 7 7 7 8 14 20 25 26 27 28 29 28 26 24 24 24 21 20 19 16
31 29 24 24 26 31 28 26 24 24 24 24 24 29 29 30 30 29 27 18 6 5 7 7 8 8 7 6 7 9 14 18 21 21 21 20 20 18 16 15 12 11 11 10
45 39 39 51 37 28 22 22 23 22 26 26 25 22 27 30 30 30 29 29 27 15 5 6 8 8 8 8 7 6 6 9 12 15 17 17 15 13 11 11 11 11 11 12
59 52 54 42 34 32 43 43 39 36 30 24 19 17 22 25 28 30 32 30 30 32 26 7 6 8 9 9 9 8 7 7 7 8 10 11 11 12 13 12 14 15 14 12
67 74 73 69 62 57 60 61 54 41 35 28 22 19 17 16 17 16 25 31 32 29 22 16 7 6 8 9 10 10 10 9 8 8 9 10 11 12 12 14 15 14 12 12
89 90 86 69 61 60 58 58 56 56 54 42 33 26 19 16 18 17 15 32 35 31 23 14 10 7 6 7 9 11 11 12 11 11 12 12 13 14 16 16 15 13 12 12
75 71 73 68 62 57 49 50 51 50 52 54 47 39 34 28 20 22 28 31 36 34 31 28 17 11 10 8 8 9 10 12 13 13 14 15 15 16 15 15 15 14 13 13
63 62 60 60 57 50 48 49 50 49 50 50 42 41 38 32 26 22 31 35 35 36 36 34 35 34 32 19 12 10 10 11 13 14 15 16 16 17 18 18 18 16 15 14
62 52 56 55 52 51 49 48 47 45 43 37 32 25 22 20 24 24 29 37 38 38 36 36 37 38 41 40 28 15 11 12 13 15 17 18 19 20 21 21 19 18 16 14
58 57 54 52 49 47 44 40 34 31 26 23 23 23 22 20 22 25 28 32 31 38 39 41 42 43 45 46 41 25 16 13 14 16 18 20 21 23 23 22 20 18 15 10
56 59 56 56 61 56 42 31 31 30 28 29 34 34 31 31 30 35 34 34 37 40 40 43 45 46 46 46 43 31 23 18 18 21 23 23 25 26 25 23 21 17 10 12
56 59 59 60 57 46 35 36 37 34 36 38 40 38 35 37 36 39 38 32 35 41 43 45 47 47 46 48 44 36 29 24 22 24 26 27 27 27 25 24 19 12 22 30
63 59 63 58 51 46 43 41 39 40 41 40 50 51 50 49 48 47 45 43 41 42 43 43 44 46 48 50 46 41 35 30 29 29 30 31 31 29 28 20 17 28 29 46
89 92 72 64 58 50 43 36 39 43 47 50 51 54 55 53 41 35 34 32 34 42 41 41 46 51 54 52 51 48 44 38 36 34 34 34 32 31 20 24 30 40 39 15
90 96 88 86 55 47 44 47 50 52 54 55 56 55 52 48 45 40 36 34 34 34 42 44 50 56 57 58 57 52 49 45 44 44 42 37 33 21 30 35 41 20 15 14
87 85 94 94 97 94 75 61 62 61 58 57 58 56 52 49 45 42 38 33 31 38 47 50 53 57 63 66 62 60 55 54 53 47 42 32 27 38 43 26 16 14 16 18
92 98 96 96 97 96 96 89 87 90 89 84 82 83 64 38 32 31 32 34 38 45 52 58 61 63 70 70 66 65 65 65 56 47 30 34 43 36 17 15 15 18 16 14
87 97 98 97 97 96 96 96 94 92 92 92 79 57 31 27 30 31 35 46 54 58 59 61 68 77 74 71 69 72 71 58 49 33 37 39 20 17 14 17 18 14 16 19
89 97 97 100 96 97 96 92 94 95 93 89 54 32 34 35 33 32 36 54 71 71 70 77 87 86 83 78 77 75 60 46 36 44 28 20 17 15 18 18 14 16 20 22

GFSNGP_700_rhum_141.txt.gz
RH
20 13 16 14 15 18 36 26 38 10 10 7 12 14 10 12 13 16 25 27 41 48 49 48 46 44 45 44 45 48 93 100 98 99 100 99 100 100 100 99 100 100 100 96
20 17 22 19 20 21 14 14 17 11 7 8 5 6 7 7 8 11 19 23 27 34 39 44 47 48 46 46 45 43 45 65 99 100 98 100 100 96 99 99 100 100 99 100
20 18 16 20 8 7 7 6 6 10 5 5 5 4 4 6 7 8 11 18 21 26 34 35 35 42 44 42 42 45 46 44 57 94 100 99 100 99 100 99 100 100 99 100
27 20 44 19 17 14 14 12 4 4 6 8 11 8 5 5 6 6 7 9 16 21 25 32 34 29 32 42 39 40 40 42 44 48 68 80 75 91 90 98 100 100 100 99
37 47 21 14 12 10 10 14 8 9 17 22 20 12 7 5 4 6 6 6 7 10 16 21 23 24 24 27 29 32 30 37 36 40 45 44 48 64 68 70 71 74 76 78
60 60 38 17 18 20 21 11 10 18 21 23 24 24 20 14 7 4 5 6 7 7 7 8 13 17 20 24 28 29 24 23 28 33 32 36 38 36 39 44 42 44 48 49
48 45 22 17 16 22 14 14 15 18 17 18 23 24 24 27 24 14 6 5 6 7 7 7 7 7 10 17 21 23 26 25 26 26 25 25 27 32 30 29 32 33 35 34
40 53 37 19 19 20 17 20 22 21 20 23 21 24 22 24 28 27 22 12 5 5 6 7 8 7 6 7 9 15 19 22 26 28 26 27 27 27 27 26 25 25 26 26
32 28 25 34 38 38 35 32 31 30 28 29 26 21 22 22 27 29 29 27 23 14 5 6 7 8 8 8 7 7 8 15 19 22 25 26 28 28 26 24 24 23 22 21
47 47 44 47 61 67 50 42 35 29 31 32 26 23 22 24 28 28 30 30 30 28 27 18 6 6 8 8 8 7 7 7 9 13 17 21 24 26 25 23 22 18 15 13
69 66 66 79 78 85 61 48 37 35 38 36 36 35 28 20 19 21 23 32 33 32 30 31 30 10 7 8 8 9 8 7 7 7 8 11 13 14 14 14 13 12 11 11
68 58 79 88 84 95 96 86 76 65 61 59 55 48 44 35 28 23 20 23 24 28 32 32 32 31 11 6 8 9 10 10 9 8 7 8 8 9 10 10 11 11 12 12
65 60 87 85 73 83 99 100 78 67 62 58 56 52 47 39 31 25 20 19 15 16 32 33 31 22 20 9 7 8 9 10 11 10 10 10 10 11 11 12 12 13 14 15
76 68 73 80 78 72 73 76 89 67 62 56 56 58 57 57 50 38 28 21 24 19 24 34 34 25 16 11 8 7 8 9 11 12 12 11 12 12 13 14 15 16 16 15
54 63 69 82 77 70 69 65 64 66 58 49 49 54 55 55 56 50 42 34 26 26 24 34 36 34 25 15 11 10 9 8 9 11 12 13 14 14 15 16 17 17 17 17
51 68 64 62 60 71 70 62 60 56 54 49 49 48 48 51 56 50 44 41 33 26 32 38 40 39 36 34 32 31 28 17 11 11 12 14 15 17 18 18 19 20 20 20
60 63 59 53 63 69 62 56 54 51 48 45 49 50 50 49 44 40 39 35 30 27 37 40 40 42 40 38 39 41 42 36 23 15 13 15 16 18 20 21 22 23 23 22
58 59 63 67 65 61 60 57 58 56 45 36 32 28 27 26 25 24 25 26 25 26 38 41 41 41 40 40 42 45 46 46 37 23 18 19 23 23 24 23 24 24 24 24
67 68 67 64 63 64 63 61 61 49 34 32 30 31 34 36 36 32 27 23 24 27 34 39 42 42 44 46 47 48 49 48 40 30 25 24 25 28 29 29 29 27 26 25
90 91 91 81 68 65 65 64 47 37 38 38 39 42 41 41 41 40 37 35 34 36 38 40 43 43 46 47 48 50 51 51 44 37 32 31 32 33 33 34 32 29 28 23
96 97 97 96 90 78 56 46 43 44 45 45 46 46 51 52 49 47 46 45 44 44 44 44 44 45 46 49 50 51 55 55 49 44 39 38 38 39 40 39 35 33 22 23
96 91 88 92 97 96 96 94 82 58 49 50 53 50 48 50 51 49 44 39 36 35 34 34 42 42 46 50 54 58 62 61 56 50 48 49 50 51 48 41 36 23 32 48
97 92 89 85 86 96 96 94 84 72 56 51 50 51 54 55 53 50 48 46 43 41 39 38 41 45 46 58 64 68 71 69 63 59 62 65 61 54 45 34 26 41 46 19
93 96 80 80 93 94 96 96 92 72 65 60 61 66 73 72 70 68 57 40 39 38 36 36 43 52 58 67 75 80 80 75 69 66 72 71 60 49 31 32 46 26 14 12
61 95 100 98 91 97 97 96 95 84 79 80 79 78 81 91 93 91 81 51 28 26 32 41 49 59 68 76 88 90 86 84 83 83 78 65 52 31 34 32 17 14 14 11
45 43 67 89 92 92 95 89 95 98 90 87 92 94 94 86 64 41 32 27 24 24 40 58 68 70 78 89 96 94 92 95 92 84 66 49 32 34 22 17 15 16 12 14
41 33 29 51 85 96 96 96 97 97 97 95 95 94 73 36 30 30 30 27 30 43 64 69 73 84 96 99 100 100 100 99 85 66 42 31 27 26 17 17 17 14 14 16